| time (UTC) | temp C | wind direction | speed KPH | gust KPH | rain 1hr cm | rain 24hr cm | rain mn cm | humidity % | barometer mb |
| 20260510153600 | 17 | 108 | 4.8 | 12.9 | 0.03 | 0.43 | 0.03 | 86 | 1012.6 |
| 20260510153500 | 17 | 111 | 4.8 | 12.9 | 0.03 | 0.43 | 0.03 | 86 | 1012.7 |
| 20260510153400 | 17 | 103 | 4.8 | 12.9 | 0.03 | 0.43 | 0.03 | 86 | 1012.7 |
| 20260510153331 | 17 | 108 | 4.8 | 12.9 | 0.03 | 0.43 | 0.03 | 86 | 1012.8 |
| 20260510153017 | 17 | 93 | 4.8 | 12.9 | 0.03 | 0.43 | 0.03 | 87 | 1012.8 |
| 20260510152801 | 17 | 106 | 4.8 | 12.9 | 0.03 | 0.43 | 0.03 | 88 | 1012.8 |
| 20260510152700 | 17 | 123 | 6.4 | 14.5 | 0.03 | 0.43 | 0.03 | 87 | 1012.9 |
| 20260510152601 | 17 | 122 | 6.4 | 14.5 | 0.03 | 0.43 | 0.03 | 87 | 1012.9 |
| 20260510152500 | 17 | 147 | 6.4 | 14.5 | 0.03 | 0.43 | 0.03 | 87 | 1012.9 |
| 20260510152400 | 17 | 90 | 6.4 | 14.5 | 0.03 | 0.43 | 0.03 | 88 | 1012.9 |
| 20260510152300 | 17 | 88 | 6.4 | 14.5 | 0.03 | 0.43 | 0.03 | 87 | 1012.9 |
| 20260510152229 | 17 | 96 | 6.4 | 14.5 | 0.03 | 0.43 | 0.03 | 87 | 1012.9 |
| 20260510151857 | 16 | 96 | 4.8 | 14.5 | 0.03 | 0.43 | 0.03 | 87 | 1012.9 |
| 20260510151758 | 16 | 114 | 4.8 | 14.5 | 0.03 | 0.43 | 0.03 | 88 | 1012.9 |
| 20260510151657 | 16 | 107 | 4.8 | 12.9 | 0.03 | 0.43 | 0.03 | 88 | 1012.8 |
| 20260510151557 | 16 | 108 | 4.8 | 12.9 | 0.00 | 0.41 | 0.00 | 89 | 1012.8 |
| 20260510151456 | 16 | 91 | 4.8 | 11.3 | 0.00 | 0.41 | 0.00 | 89 | 1012.8 |
| 20260510151355 | 16 | 99 | 4.8 | 11.3 | 0.00 | 0.41 | 0.00 | 89 | 1012.8 |
| 20260510151253 | 16 | 85 | 4.8 | 11.3 | 0.00 | 0.41 | 0.00 | 90 | 1012.8 |
| 20260510151207 | 16 | 82 | 4.8 | 11.3 | 0.00 | 0.41 | 0.00 | 90 | 1012.8 |
| 20260510151006 | 16 | 98 | 4.8 | 11.3 | 0.00 | 0.41 | 0.00 | 90 | 1012.9 |
| 20260510150818 | 16 | 92 | 4.8 | 11.3 | 0.00 | 0.41 | 0.00 | 90 | 1012.9 |
| 20260510150446 | 16 | 134 | 4.8 | 11.3 | 0.00 | 0.41 | 0.00 | 90 | 1012.8 |
| 20260510150346 | 16 | 116 | 3.2 | 11.3 | 0.00 | 0.41 | 0.00 | 91 | 1012.8 |
| 20260510150248 | 16 | 119 | 4.8 | 11.3 | 0.00 | 0.41 | 0.00 | 91 | 1012.8 |
| 20260510150200 | 16 | 137 | 3.2 | 11.3 | 0.00 | 0.41 | 0.00 | 91 | 1012.9 |
| 20260510145944 | 16 | 113 | 3.2 | 11.3 | 0.00 | 0.41 | 0.00 | 92 | 1012.8 |
| 20260510145845 | 16 | 76 | 3.2 | 9.7 | 0.00 | 0.41 | 0.00 | 93 | 1012.8 |
| 20260510145757 | 16 | 119 | 3.2 | 9.7 | 0.00 | 0.41 | 0.00 | 93 | 1012.9 |
| 20260510145543 | 15 | 113 | 3.2 | 9.7 | 0.00 | 0.41 | 0.00 | 93 | 1012.8 |
| 20260510145441 | 15 | 125 | 4.8 | 9.7 | 0.00 | 0.41 | 0.00 | 93 | 1012.8 |
| 20260510145343 | 15 | 122 | 4.8 | 9.7 | 0.00 | 0.41 | 0.00 | 93 | 1012.8 |
| 20260510145257 | 15 | 100 | 4.8 | 11.3 | 0.00 | 0.41 | 0.00 | 94 | 1012.9 |
| 20260510145038 | 15 | 103 | 4.8 | 11.3 | 0.00 | 0.41 | 0.00 | 94 | 1012.8 |
| 20260510144939 | 15 | 103 | 4.8 | 11.3 | 0.00 | 0.41 | 0.00 | 94 | 1012.9 |
| 20260510144854 | 15 | 90 | 4.8 | 11.3 | 0.00 | 0.41 | 0.00 | 95 | 1012.9 |
| 20260510144636 | 15 | 119 | 3.2 | 11.3 | 0.00 | 0.41 | 0.00 | 95 | 1012.9 |
| 20260510144537 | 15 | 115 | 3.2 | 11.3 | 0.00 | 0.41 | 0.00 | 95 | 1013.0 |
| 20260510144436 | 15 | 115 | 3.2 | 11.3 | 0.00 | 0.41 | 0.00 | 96 | 1013.0 |
| 20260510144353 | 15 | 130 | 3.2 | 11.3 | 0.00 | 0.41 | 0.00 | 96 | 1013.0 |
| 20260510144138 | 15 | 108 | 3.2 | 11.3 | 0.00 | 0.41 | 0.00 | 96 | 1013.0 |
| 20260510144037 | 15 | 115 | 3.2 | 11.3 | 0.00 | 0.41 | 0.00 | 96 | 1013.0 |
| 20260510143936 | 15 | 114 | 3.2 | 11.3 | 0.00 | 0.41 | 0.00 | 96 | 1013.0 |
| 20260510143837 | 15 | 122 | 3.2 | 11.3 | 0.00 | 0.41 | 0.00 | 96 | 1013.0 |
| 20260510143736 | 15 | 122 | 3.2 | 11.3 | 0.00 | 0.41 | 0.00 | 96 | 1013.0 |
| 20260510143651 | 14 | 122 | 3.2 | 11.3 | 0.00 | 0.41 | 0.00 | 96 | 1013.0 |
| 20260510143436 | 14 | 121 | 3.2 | 11.3 | 0.00 | 0.41 | 0.00 | 97 | 1013.0 |
| 20260510143349 | 14 | 116 | 3.2 | 11.3 | 0.00 | 0.41 | 0.00 | 97 | 1013.0 |
| 20260510143134 | 14 | 123 | 1.6 | 9.7 | 0.00 | 0.41 | 0.00 | 97 | 1013.0 |
| 20260510143031 | 14 | 120 | 3.2 | 9.7 | 0.00 | 0.41 | 0.00 | 97 | 1013.0 |
| 20260510142945 | 14 | 120 | 3.2 | 11.3 | 0.00 | 0.41 | 0.00 | 98 | 1013.0 |
| 20260510142726 | 14 | 121 | 3.2 | 11.3 | 0.00 | 0.41 | 0.00 | 98 | 1013.0 |
| 20260510142626 | 14 | 119 | 3.2 | 11.3 | 0.00 | 0.41 | 0.00 | 98 | 1013.0 |
| 20260510142527 | 14 | 123 | 3.2 | 11.3 | 0.00 | 0.41 | 0.00 | 98 | 1013.0 |
| 20260510142424 | 14 | 123 | 3.2 | 11.3 | 0.00 | 0.41 | 0.00 | 98 | 1012.9 |
| 20260510142325 | 14 | 123 | 3.2 | 11.3 | 0.00 | 0.41 | 0.00 | 98 | 1012.9 |
| 20260510142222 | 14 | 123 | 3.2 | 11.3 | 0.00 | 0.41 | 0.00 | 99 | 1012.9 |
| 20260510142122 | 14 | 124 | 3.2 | 11.3 | 0.00 | 0.41 | 0.00 | 99 | 1012.9 |
| 20260510142040 | 13 | 122 | 3.2 | 11.3 | 0.00 | 0.41 | 0.00 | 99 | 1012.9 |
| 20260510141824 | 13 | 112 | 1.6 | 9.7 | 0.00 | 0.41 | 0.00 | 99 | 1012.9 |
| 20260510141737 | 13 | 110 | 1.6 | 9.7 | 0.00 | 0.41 | 0.00 | 99 | 1012.9 |
| 20260510141522 | 13 | 109 | 1.6 | 6.4 | 0.00 | 0.41 | 0.00 | 98 | 1012.9 |
| 20260510141420 | 13 | 120 | 1.6 | 4.8 | 0.00 | 0.41 | 0.00 | 98 | 1012.9 |
| 20260510141319 | 13 | 120 | 1.6 | 4.8 | 0.00 | 0.41 | 0.00 | 98 | 1012.9 |
| 20260510141219 | 13 | 120 | 1.6 | 4.8 | 0.00 | 0.41 | 0.00 | 98 | 1012.9 |
| 20260510141120 | 13 | 120 | 1.6 | 4.8 | 0.00 | 0.41 | 0.00 | 98 | 1012.9 |
| 20260510141034 | 13 | 120 | 1.6 | 4.8 | 0.00 | 0.41 | 0.00 | 98 | 1012.9 |
| 20260510140814 | 13 | 120 | 0.0 | 4.8 | 0.00 | 0.41 | 0.00 | 99 | 1012.9 |
| 20260510140714 | 13 | 120 | 0.0 | 4.8 | 0.00 | 0.41 | 0.00 | 99 | 1012.9 |
| 20260510140615 | 13 | 120 | 0.0 | 4.8 | 0.00 | 0.41 | 0.00 | 99 | 1012.9 |
| 20260510140514 | 13 | 121 | 0.0 | 4.8 | 0.00 | 0.41 | 0.00 | 99 | 1012.9 |
| 20260510140427 | 13 | 121 | 0.0 | 4.8 | 0.00 | 0.41 | 0.00 | 99 | 1012.9 |
| 20260510140226 | 13 | 121 | 0.0 | 4.8 | 0.00 | 0.41 | 0.00 | 99 | 1012.9 |
| 20260510140010 | 13 | 121 | 0.0 | 4.8 | 0.00 | 0.41 | 0.00 | 99 | 1012.9 |
| 20260510135908 | 13 | 121 | 0.0 | 4.8 | 0.00 | 0.41 | 0.00 | 99 | 1012.9 |
| 20260510135811 | 13 | 121 | 0.0 | 4.8 | 0.00 | 0.41 | 0.00 | 99 | 1012.9 |
| 20260510135709 | 13 | 121 | 0.0 | 4.8 | 0.00 | 0.41 | 0.00 | 99 | 1012.8 |
| 20260510135610 | 13 | 121 | 0.0 | 4.8 | 0.00 | 0.41 | 0.00 | 99 | 1012.9 |
| 20260510135523 | 13 | 121 | 0.0 | 4.8 | 0.00 | 0.41 | 0.00 | 99 | 1012.8 |
| 20260510135306 | 12 | 127 | 0.0 | 0.0 | 0.00 | 0.41 | 0.00 | 99 | 1012.8 |
| 20260510135235 | 12 | 127 | 0.0 | 0.0 | 0.00 | 0.41 | 0.00 | 99 | 1012.7 |
| 20260510134903 | 12 | 127 | 0.0 | 0.0 | 0.00 | 0.41 | 0.00 | 99 | 1012.7 |
| 20260510134804 | 12 | 127 | 0.0 | 0.0 | 0.00 | 0.41 | 0.00 | 99 | 1012.7 |
| 20260510134702 | 12 | 127 | 0.0 | 0.0 | 0.00 | 0.41 | 0.00 | 99 | 1012.7 |
| 20260510134600 | 12 | 127 | 0.0 | 0.0 | 0.00 | 0.41 | 0.00 | 99 | 1012.8 |
| 20260510134458 | 12 | 127 | 0.0 | 0.0 | 0.00 | 0.41 | 0.00 | 99 | 1012.7 |
| 20260510134358 | 12 | 127 | 0.0 | 0.0 | 0.00 | 0.41 | 0.00 | 99 | 1012.8 |
| 20260510134259 | 12 | 127 | 0.0 | 1.6 | 0.00 | 0.41 | 0.00 | 99 | 1012.8 |
| 20260510134212 | 12 | 127 | 0.0 | 1.6 | 0.00 | 0.41 | 0.00 | 98 | 1012.8 |
| 20260510134011 | 12 | 127 | 0.0 | 1.6 | 0.00 | 0.41 | 0.00 | 99 | 1012.8 |
| 20260510133757 | 12 | 135 | 0.0 | 1.6 | 0.00 | 0.41 | 0.00 | 99 | 1012.9 |
| 20260510133657 | 12 | 135 | 0.0 | 1.6 | 0.00 | 0.41 | 0.00 | 99 | 1012.9 |
| 20260510133558 | 12 | 135 | 0.0 | 1.6 | 0.00 | 0.41 | 0.00 | 99 | 1012.9 |
| 20260510133454 | 12 | 128 | 0.0 | 1.6 | 0.00 | 0.41 | 0.00 | 99 | 1012.9 |
| 20260510133410 | 12 | 128 | 0.0 | 1.6 | 0.00 | 0.41 | 0.00 | 99 | 1012.9 |
| 20260510133152 | 12 | 128 | 0.0 | 0.0 | 0.00 | 0.41 | 0.00 | 99 | 1012.8 |
| 20260510133054 | 12 | 128 | 0.0 | 0.0 | 0.00 | 0.41 | 0.00 | 99 | 1012.9 |
| 20260510132953 | 12 | 128 | 0.0 | 0.0 | 0.00 | 0.41 | 0.00 | 98 | 1012.9 |
| 20260510132852 | 12 | 128 | 0.0 | 0.0 | 0.00 | 0.41 | 0.00 | 99 | 1012.9 |
| 20260510132753 | 12 | 128 | 0.0 | 0.0 | 0.00 | 0.41 | 0.00 | 99 | 1012.9 |
| 20260510132654 | 12 | 111 | 0.0 | 0.0 | 0.00 | 0.41 | 0.00 | 99 | 1012.9 |
| 20260510132553 | 12 | 111 | 0.0 | 0.0 | 0.00 | 0.41 | 0.00 | 99 | 1012.9 |
| 20260510132450 | 12 | 111 | 0.0 | 0.0 | 0.00 | 0.41 | 0.00 | 99 | 1012.8 |
| 20260510132351 | 12 | 111 | 0.0 | 0.0 | 0.00 | 0.41 | 0.00 | 99 | 1012.8 |
| 20260510132248 | 12 | 111 | 0.0 | 0.0 | 0.00 | 0.41 | 0.00 | 99 | 1012.9 |
| 20260510132150 | 12 | 111 | 0.0 | 0.0 | 0.00 | 0.41 | 0.00 | 99 | 1012.9 |
| 20260510132049 | 12 | 111 | 0.0 | 0.0 | 0.00 | 0.41 | 0.00 | 99 | 1012.9 |
| 20260510132003 | 12 | 111 | 0.0 | 0.0 | 0.00 | 0.41 | 0.00 | 99 | 1013.0 |
| 20260510131744 | 12 | 111 | 0.0 | 0.0 | 0.00 | 0.41 | 0.00 | 99 | 1012.9 |
| 20260510131645 | 12 | 111 | 0.0 | 0.0 | 0.00 | 0.41 | 0.00 | 99 | 1012.9 |
| 20260510131544 | 12 | 111 | 0.0 | 0.0 | 0.00 | 0.41 | 0.00 | 99 | 1012.9 |
| 20260510131443 | 12 | 111 | 0.0 | 0.0 | 0.00 | 0.41 | 0.00 | 99 | 1012.9 |
| 20260510131344 | 12 | 111 | 0.0 | 0.0 | 0.00 | 0.41 | 0.00 | 99 | 1012.9 |
| 20260510131246 | 12 | 111 | 0.0 | 0.0 | 0.00 | 0.41 | 0.00 | 99 | 1012.9 |
| 20260510131140 | 12 | 111 | 0.0 | 0.0 | 0.00 | 0.41 | 0.00 | 99 | 1012.9 |
| 20260510131040 | 12 | 111 | 0.0 | 0.0 | 0.00 | 0.41 | 0.00 | 99 | 1012.9 |
| 20260510130939 | 12 | 111 | 0.0 | 0.0 | 0.00 | 0.41 | 0.00 | 99 | 1012.9 |
| 20260510130838 | 11 | 111 | 0.0 | 0.0 | 0.00 | 0.41 | 0.00 | 99 | 1012.9 |
| 20260510130737 | 11 | 111 | 0.0 | 0.0 | 0.00 | 0.41 | 0.00 | 99 | 1012.9 |
| 20260510130652 | 11 | 111 | 0.0 | 0.0 | 0.00 | 0.41 | 0.00 | 99 | 1012.9 |
| 20260510130434 | 11 | 111 | 0.0 | 0.0 | 0.00 | 0.41 | 0.00 | 99 | 1012.8 |
| 20260510130335 | 11 | 111 | 0.0 | 0.0 | 0.00 | 0.41 | 0.00 | 99 | 1012.8 |
| 20260510130232 | 11 | 111 | 0.0 | 0.0 | 0.00 | 0.41 | 0.00 | 99 | 1012.7 |
| 20260510130134 | 11 | 111 | 0.0 | 0.0 | 0.00 | 0.41 | 0.00 | 99 | 1012.7 |
| 20260510130031 | 11 | 111 | 0.0 | 0.0 | 0.00 | 0.41 | 0.00 | 99 | 1012.7 |
| 20260510125945 | 11 | 111 | 0.0 | 0.0 | 0.00 | 0.41 | 0.00 | 99 | 1012.7 |
| 20260510125729 | 11 | 111 | 0.0 | 0.0 | 0.00 | 0.41 | 0.00 | 99 | 1012.7 |
| 20260510125643 | 11 | 111 | 0.0 | 0.0 | 0.00 | 0.41 | 0.00 | 99 | 1012.7 |
| 20260510125427 | 11 | 111 | 0.0 | 0.0 | 0.00 | 0.41 | 0.00 | 99 | 1012.7 |
| 20260510125326 | 11 | 111 | 0.0 | 0.0 | 0.00 | 0.41 | 0.00 | 99 | 1012.6 |
| 20260510125224 | 11 | 111 | 0.0 | 0.0 | 0.00 | 0.41 | 0.00 | 99 | 1012.6 |
| 20260510125124 | 11 | 111 | 0.0 | 0.0 | 0.00 | 0.41 | 0.00 | 99 | 1012.6 |
| 20260510125023 | 11 | 111 | 0.0 | 0.0 | 0.00 | 0.41 | 0.00 | 99 | 1012.5 |
| 20260510124923 | 11 | 111 | 0.0 | 0.0 | 0.00 | 0.41 | 0.00 | 99 | 1012.5 |
| 20260510124822 | 11 | 111 | 0.0 | 0.0 | 0.00 | 0.41 | 0.00 | 99 | 1012.4 |
| 20260510124721 | 11 | 111 | 0.0 | 0.0 | 0.00 | 0.41 | 0.00 | 99 | 1012.5 |
| 20260510124620 | 11 | 111 | 0.0 | 0.0 | 0.00 | 0.41 | 0.00 | 99 | 1012.4 |
| 20260510124519 | 11 | 111 | 0.0 | 0.0 | 0.00 | 0.41 | 0.00 | 99 | 1012.4 |
| 20260510124435 | 11 | 111 | 0.0 | 0.0 | 0.00 | 0.41 | 0.00 | 99 | 1012.4 |
| 20260510124219 | 11 | 111 | 0.0 | 0.0 | 0.00 | 0.41 | 0.00 | 99 | 1012.5 |
| 20260510124116 | 11 | 111 | 0.0 | 0.0 | 0.00 | 0.41 | 0.00 | 99 | 1012.4 |
| 20260510124016 | 11 | 111 | 0.0 | 0.0 | 0.00 | 0.41 | 0.00 | 99 | 1012.4 |
| 20260510123915 | 11 | 111 | 0.0 | 0.0 | 0.00 | 0.41 | 0.00 | 99 | 1012.3 |
| 20260510123815 | 11 | 111 | 0.0 | 0.0 | 0.00 | 0.41 | 0.00 | 99 | 1012.3 |
| 20260510123712 | 11 | 111 | 0.0 | 0.0 | 0.00 | 0.41 | 0.00 | 99 | 1012.3 |
| 20260510123613 | 11 | 111 | 0.0 | 0.0 | 0.00 | 0.41 | 0.00 | 99 | 1012.3 |
| 20260510123512 | 11 | 111 | 0.0 | 0.0 | 0.00 | 0.41 | 0.00 | 99 | 1012.4 |
| 20260510123411 | 11 | 111 | 0.0 | 0.0 | 0.00 | 0.41 | 0.00 | 99 | 1012.4 |
| 20260510123308 | 11 | 111 | 0.0 | 0.0 | 0.00 | 0.41 | 0.00 | 99 | 1012.4 |
| 20260510123210 | 11 | 111 | 0.0 | 0.0 | 0.00 | 0.41 | 0.00 | 99 | 1012.3 |
| 20260510123108 | 11 | 111 | 0.0 | 0.0 | 0.00 | 0.41 | 0.00 | 98 | 1012.4 |
| 20260510123010 | 11 | 111 | 0.0 | 0.0 | 0.00 | 0.41 | 0.00 | 98 | 1012.4 |
| 20260510122906 | 11 | 111 | 0.0 | 0.0 | 0.00 | 0.41 | 0.00 | 98 | 1012.3 |
| 20260510122806 | 11 | 111 | 0.0 | 0.0 | 0.00 | 0.41 | 0.00 | 98 | 1012.4 |
| 20260510122719 | 11 | 111 | 0.0 | 0.0 | 0.00 | 0.41 | 0.00 | 98 | 1012.4 |
| 20260510122505 | 11 | 111 | 0.0 | 0.0 | 0.00 | 0.41 | 0.00 | 98 | 1012.4 |
| 20260510122432 | 11 | 111 | 0.0 | 0.0 | 0.00 | 0.41 | 0.00 | 98 | 1012.4 |
| 20260510122103 | 11 | 111 | 0.0 | 0.0 | 0.00 | 0.41 | 0.00 | 98 | 1012.4 |
| 20260510122015 | 11 | 111 | 0.0 | 0.0 | 0.00 | 0.41 | 0.00 | 98 | 1012.3 |
| 20260510121800 | 10 | 111 | 0.0 | 0.0 | 0.00 | 0.41 | 0.00 | 98 | 1012.4 |
| 20260510121657 | 11 | 111 | 0.0 | 0.0 | 0.00 | 0.41 | 0.00 | 98 | 1012.3 |
| 20260510121558 | 10 | 111 | 0.0 | 0.0 | 0.00 | 0.41 | 0.00 | 98 | 1012.3 |
| 20260510121457 | 10 | 111 | 0.0 | 0.0 | 0.00 | 0.41 | 0.00 | 98 | 1012.3 |
| 20260510121355 | 10 | 111 | 0.0 | 0.0 | 0.00 | 0.41 | 0.00 | 98 | 1012.3 |
| 20260510121255 | 10 | 111 | 0.0 | 0.0 | 0.00 | 0.41 | 0.00 | 98 | 1012.4 |
| 20260510121153 | 10 | 111 | 0.0 | 0.0 | 0.00 | 0.41 | 0.00 | 98 | 1012.4 |
| 20260510121108 | 10 | 111 | 0.0 | 0.0 | 0.00 | 0.41 | 0.00 | 98 | 1012.4 |
| 20260510120851 | 10 | 111 | 0.0 | 0.0 | 0.00 | 0.41 | 0.00 | 98 | 1012.4 |
| 20260510120752 | 10 | 111 | 0.0 | 0.0 | 0.00 | 0.41 | 0.00 | 98 | 1012.4 |
| 20260510120705 | 10 | 111 | 0.0 | 0.0 | 0.00 | 0.41 | 0.00 | 98 | 1012.4 |
| 20260510120449 | 10 | 111 | 0.0 | 0.0 | 0.00 | 0.41 | 0.00 | 98 | 1012.4 |
| 20260510120401 | 10 | 111 | 0.0 | 0.0 | 0.00 | 0.41 | 0.00 | 98 | 1012.4 |
| 20260510120145 | 10 | 111 | 0.0 | 0.0 | 0.00 | 0.41 | 0.00 | 98 | 1012.4 |
| 20260510120045 | 10 | 111 | 0.0 | 0.0 | 0.00 | 0.41 | 0.00 | 98 | 1012.4 |
| 20260510115946 | 10 | 111 | 0.0 | 0.0 | 0.00 | 0.41 | 0.00 | 98 | 1012.3 |
| 20260510115843 | 10 | 111 | 0.0 | 0.0 | 0.00 | 0.41 | 0.00 | 98 | 1012.2 |
| 20260510115744 | 10 | 111 | 0.0 | 0.0 | 0.00 | 0.41 | 0.00 | 98 | 1012.2 |
| 20260510115642 | 10 | 111 | 0.0 | 0.0 | 0.00 | 0.41 | 0.00 | 98 | 1012.1 |
| 20260510115613 | 10 | 111 | 0.0 | 0.0 | 0.00 | 0.41 | 0.00 | 98 | 1012.1 |
| 20260510115241 | 10 | 111 | 0.0 | 0.0 | 0.00 | 0.41 | 0.00 | 98 | 1012.0 |
| 20260510115138 | 10 | 111 | 0.0 | 0.0 | 0.00 | 0.41 | 0.00 | 98 | 1012.0 |
| 20260510115037 | 10 | 111 | 0.0 | 0.0 | 0.00 | 0.41 | 0.00 | 98 | 1011.9 |
| 20260510114938 | 10 | 111 | 0.0 | 0.0 | 0.00 | 0.41 | 0.00 | 98 | 1011.9 |
| 20260510114835 | 10 | 111 | 0.0 | 0.0 | 0.00 | 0.41 | 0.00 | 98 | 1011.9 |
| 20260510114737 | 10 | 111 | 0.0 | 0.0 | 0.00 | 0.41 | 0.00 | 98 | 1011.9 |
| 20260510114633 | 10 | 111 | 0.0 | 0.0 | 0.00 | 0.41 | 0.00 | 98 | 1011.9 |
| 20260510114550 | 10 | 111 | 0.0 | 0.0 | 0.00 | 0.41 | 0.00 | 98 | 1011.9 |
| 20260510114332 | 10 | 111 | 0.0 | 0.0 | 0.00 | 0.41 | 0.00 | 98 | 1011.9 |
| 20260510114229 | 10 | 111 | 0.0 | 0.0 | 0.00 | 0.41 | 0.00 | 98 | 1011.9 |
| 20260510114146 | 10 | 111 | 0.0 | 0.0 | 0.00 | 0.41 | 0.00 | 98 | 1011.9 |
| 20260510113929 | 10 | 111 | 0.0 | 0.0 | 0.00 | 0.41 | 0.00 | 98 | 1011.9 |
| 20260510113828 | 10 | 111 | 0.0 | 0.0 | 0.00 | 0.41 | 0.00 | 98 | 1011.9 |
| 20260510113730 | 10 | 111 | 0.0 | 0.0 | 0.00 | 0.41 | 0.00 | 98 | 1011.9 |
| 20260510113625 | 10 | 111 | 0.0 | 0.0 | 0.00 | 0.41 | 0.00 | 98 | 1011.9 |
| 20260510113527 | 10 | 111 | 0.0 | 0.0 | 0.00 | 0.41 | 0.00 | 98 | 1011.9 |
| 20260510113502 | 10 | 111 | 0.0 | 0.0 | 0.00 | 0.41 | 0.00 | 98 | 1012.0 |
| 20260510113225 | 10 | 111 | 0.0 | 0.0 | 0.00 | 0.41 | 0.00 | 98 | 1012.0 |
| 20260510113122 | 10 | 111 | 0.0 | 0.0 | 0.00 | 0.41 | 0.00 | 98 | 1012.0 |
| 20260510113022 | 10 | 111 | 0.0 | 0.0 | 0.00 | 0.41 | 0.00 | 98 | 1012.0 |
| 20260510112922 | 10 | 111 | 0.0 | 0.0 | 0.00 | 0.41 | 0.00 | 98 | 1011.9 |
| 20260510112819 | 10 | 111 | 0.0 | 0.0 | 0.00 | 0.41 | 0.00 | 98 | 1012.0 |
| 20260510112722 | 10 | 111 | 0.0 | 0.0 | 0.00 | 0.41 | 0.00 | 98 | 1012.0 |
| 20260510112618 | 10 | 111 | 0.0 | 0.0 | 0.00 | 0.41 | 0.00 | 98 | 1012.0 |
| 20260510112518 | 10 | 111 | 0.0 | 0.0 | 0.00 | 0.41 | 0.00 | 98 | 1012.0 |
| 20260510112429 | 10 | 111 | 0.0 | 0.0 | 0.00 | 0.41 | 0.00 | 98 | 1012.0 |
| 20260510112415 | 10 | 111 | 0.0 | 0.0 | 0.00 | 0.41 | 0.00 | 98 | 1012.0 |
| 20260510111812 | 10 | 111 | 0.0 | 0.0 | 0.00 | 0.41 | 0.00 | 98 | 1012.0 |
| 20260510111711 | 10 | 111 | 0.0 | 0.0 | 0.00 | 0.41 | 0.00 | 98 | 1012.0 |
| 20260510111610 | 10 | 111 | 0.0 | 0.0 | 0.00 | 0.41 | 0.00 | 98 | 1012.0 |
| 20260510111509 | 10 | 111 | 0.0 | 0.0 | 0.00 | 0.41 | 0.00 | 98 | 1012.0 |
| 20260510111410 | 10 | 111 | 0.0 | 0.0 | 0.00 | 0.41 | 0.00 | 98 | 1011.9 |
| 20260510111310 | 10 | 111 | 0.0 | 0.0 | 0.00 | 0.41 | 0.00 | 98 | 1012.0 |
| 20260510111206 | 10 | 111 | 0.0 | 0.0 | 0.00 | 0.41 | 0.00 | 98 | 1012.0 |
| 20260510111105 | 10 | 111 | 0.0 | 0.0 | 0.00 | 0.41 | 0.00 | 98 | 1011.9 |
| 20260510111005 | 10 | 111 | 0.0 | 0.0 | 0.00 | 0.41 | 0.00 | 98 | 1011.9 |
| 20260510110905 | 10 | 111 | 0.0 | 0.0 | 0.00 | 0.41 | 0.00 | 98 | 1011.8 |
| 20260510110804 | 10 | 111 | 0.0 | 0.0 | 0.00 | 0.41 | 0.00 | 98 | 1011.8 |
| 20260510110704 | 10 | 111 | 0.0 | 0.0 | 0.00 | 0.41 | 0.00 | 98 | 1011.8 |
| 20260510110603 | 10 | 111 | 0.0 | 0.0 | 0.00 | 0.41 | 0.00 | 98 | 1011.8 |
| 20260510110504 | 10 | 111 | 0.0 | 0.0 | 0.00 | 0.41 | 0.00 | 98 | 1011.8 |
| 20260510110403 | 10 | 111 | 0.0 | 0.0 | 0.00 | 0.41 | 0.00 | 98 | 1011.7 |
| 20260510110305 | 10 | 111 | 0.0 | 0.0 | 0.00 | 0.41 | 0.00 | 98 | 1011.7 |
| 20260510110202 | 10 | 111 | 0.0 | 0.0 | 0.00 | 0.41 | 0.00 | 98 | 1011.7 |
| 20260510110003 | 10 | 111 | 0.0 | 0.0 | 0.00 | 0.41 | 0.00 | 98 | 1011.7 |
| 20260510105915 | 10 | 111 | 0.0 | 0.0 | 0.00 | 0.41 | 0.00 | 98 | 1011.7 |
| 20260510105700 | 10 | 111 | 0.0 | 0.0 | 0.00 | 0.41 | 0.00 | 98 | 1011.7 |
| 20260510105600 | 10 | 111 | 0.0 | 0.0 | 0.00 | 0.41 | 0.00 | 98 | 1011.7 |
| 20260510105459 | 10 | 111 | 0.0 | 0.0 | 0.00 | 0.41 | 0.00 | 98 | 1011.7 |
| 20260510105359 | 10 | 111 | 0.0 | 0.0 | 0.00 | 0.41 | 0.00 | 98 | 1011.7 |
| 20260510105330 | 10 | 111 | 0.0 | 0.0 | 0.00 | 0.41 | 0.00 | 98 | 1011.7 |
| 20260510105000 | 10 | 111 | 0.0 | 0.0 | 0.00 | 0.41 | 0.00 | 98 | 1011.6 |
| 20260510104901 | 10 | 111 | 0.0 | 0.0 | 0.00 | 0.41 | 0.00 | 98 | 1011.6 |
| 20260510104813 | 10 | 111 | 0.0 | 0.0 | 0.00 | 0.41 | 0.00 | 98 | 1011.6 |
| 20260510104557 | 10 | 111 | 0.0 | 0.0 | 0.00 | 0.41 | 0.00 | 98 | 1011.6 |
| 20260510104500 | 10 | 111 | 0.0 | 0.0 | 0.00 | 0.41 | 0.00 | 98 | 1011.5 |
| 20260510104355 | 10 | 111 | 0.0 | 0.0 | 0.00 | 0.41 | 0.00 | 98 | 1011.6 |
| 20260510104257 | 10 | 111 | 0.0 | 0.0 | 0.00 | 0.41 | 0.00 | 98 | 1011.5 |
| 20260510104155 | 10 | 111 | 0.0 | 0.0 | 0.00 | 0.41 | 0.00 | 98 | 1011.6 |
| 20260510104055 | 10 | 111 | 0.0 | 0.0 | 0.00 | 0.41 | 0.00 | 98 | 1011.6 |
| 20260510103954 | 10 | 111 | 0.0 | 0.0 | 0.00 | 0.41 | 0.00 | 98 | 1011.6 |
| 20260510103854 | 10 | 111 | 0.0 | 0.0 | 0.00 | 0.41 | 0.00 | 98 | 1011.5 |
| 20260510103752 | 10 | 111 | 0.0 | 0.0 | 0.00 | 0.41 | 0.00 | 98 | 1011.5 |
| 20260510103650 | 10 | 111 | 0.0 | 0.0 | 0.00 | 0.41 | 0.00 | 98 | 1011.5 |
| 20260510103551 | 10 | 111 | 0.0 | 0.0 | 0.00 | 0.41 | 0.00 | 98 | 1011.5 |
| 20260510103451 | 10 | 111 | 0.0 | 0.0 | 0.00 | 0.41 | 0.00 | 98 | 1011.4 |
| 20260510103403 | 10 | 111 | 0.0 | 0.0 | 0.00 | 0.41 | 0.00 | 98 | 1011.4 |
| 20260510103200 | 10 | 111 | 0.0 | 0.0 | 0.00 | 0.41 | 0.00 | 98 | 1011.4 |
| 20260510102944 | 10 | 111 | 0.0 | 0.0 | 0.00 | 0.41 | 0.00 | 98 | 1011.5 |
| 20260510102844 | 10 | 111 | 0.0 | 0.0 | 0.00 | 0.41 | 0.00 | 98 | 1011.5 |
| 20260510102744 | 10 | 111 | 0.0 | 0.0 | 0.00 | 0.41 | 0.00 | 98 | 1011.5 |
| 20260510102643 | 10 | 111 | 0.0 | 0.0 | 0.00 | 0.41 | 0.00 | 98 | 1011.5 |
| 20260510102557 | 10 | 111 | 0.0 | 0.0 | 0.00 | 0.41 | 0.00 | 98 | 1011.5 |
| 20260510102339 | 10 | 111 | 0.0 | 0.0 | 0.00 | 0.41 | 0.00 | 98 | 1011.5 |
| 20260510102240 | 10 | 111 | 0.0 | 0.0 | 0.00 | 0.41 | 0.00 | 98 | 1011.4 |
| 20260510102138 | 10 | 111 | 0.0 | 0.0 | 0.00 | 0.41 | 0.00 | 98 | 1011.5 |
| 20260510102038 | 10 | 111 | 0.0 | 0.0 | 0.00 | 0.41 | 0.00 | 98 | 1011.5 |
| 20260510101951 | 10 | 111 | 0.0 | 0.0 | 0.00 | 0.41 | 0.00 | 98 | 1011.5 |
| 20260510101735 | 10 | 111 | 0.0 | 0.0 | 0.00 | 0.41 | 0.00 | 98 | 1011.5 |
| 20260510101636 | 10 | 111 | 0.0 | 0.0 | 0.00 | 0.41 | 0.00 | 98 | 1011.4 |
| 20260510101535 | 10 | 111 | 0.0 | 0.0 | 0.00 | 0.41 | 0.00 | 98 | 1011.5 |
| 20260510101433 | 10 | 111 | 0.0 | 0.0 | 0.00 | 0.41 | 0.00 | 98 | 1011.5 |
| 20260510101347 | 10 | 111 | 0.0 | 0.0 | 0.00 | 0.41 | 0.00 | 98 | 1011.4 |
| 20260510101130 | 10 | 111 | 0.0 | 0.0 | 0.00 | 0.41 | 0.00 | 98 | 1011.3 |
| 20260510101030 | 10 | 111 | 0.0 | 0.0 | 0.00 | 0.41 | 0.00 | 98 | 1011.3 |
| 20260510100930 | 10 | 111 | 0.0 | 0.0 | 0.00 | 0.41 | 0.00 | 98 | 1011.3 |
| 20260510100828 | 10 | 111 | 0.0 | 0.0 | 0.00 | 0.41 | 0.00 | 98 | 1011.3 |
| 20260510100727 | 10 | 111 | 0.0 | 0.0 | 0.00 | 0.41 | 0.00 | 98 | 1011.3 |
| 20260510100642 | 10 | 111 | 0.0 | 0.0 | 0.00 | 0.41 | 0.00 | 98 | 1011.3 |
| 20260510100426 | 10 | 111 | 0.0 | 1.6 | 0.00 | 0.41 | 0.00 | 98 | 1011.3 |
| 20260510100411 | 10 | 111 | 0.0 | 1.6 | 0.00 | 0.41 | 0.00 | 98 | 1011.4 |
| 20260510095937 | 10 | 107 | 0.0 | 1.6 | 0.00 | 0.41 | 0.00 | 98 | 1011.4 |
| 20260510095719 | 10 | 107 | 0.0 | 1.6 | 0.00 | 0.41 | 0.00 | 98 | 1011.4 |
| 20260510095618 | 10 | 107 | 0.0 | 1.6 | 0.00 | 0.41 | 0.00 | 98 | 1011.4 |
| 20260510095519 | 10 | 107 | 0.0 | 1.6 | 0.00 | 0.41 | 0.00 | 98 | 1011.5 |
| 20260510095419 | 10 | 107 | 0.0 | 0.0 | 0.00 | 0.41 | 0.00 | 98 | 1011.5 |
| 20260510095315 | 10 | 107 | 0.0 | 0.0 | 0.00 | 0.41 | 0.00 | 98 | 1011.5 |
| 20260510095216 | 10 | 107 | 0.0 | 0.0 | 0.00 | 0.41 | 0.00 | 98 | 1011.5 |
| 20260510095114 | 10 | 107 | 0.0 | 0.0 | 0.00 | 0.41 | 0.00 | 98 | 1011.5 |
| 20260510095013 | 10 | 107 | 0.0 | 0.0 | 0.00 | 0.41 | 0.00 | 98 | 1011.5 |
| 20260510094942 | 10 | 107 | 0.0 | 0.0 | 0.00 | 0.41 | 0.00 | 98 | 1011.5 |
| 20260510094627 | 10 | 107 | 0.0 | 0.0 | 0.00 | 0.41 | 0.00 | 98 | 1011.5 |
| 20260510094412 | 9 | 107 | 0.0 | 0.0 | 0.00 | 0.41 | 0.00 | 98 | 1011.5 |
| 20260510094309 | 10 | 107 | 0.0 | 0.0 | 0.00 | 0.41 | 0.00 | 98 | 1011.5 |
| 20260510094209 | 10 | 107 | 0.0 | 0.0 | 0.00 | 0.41 | 0.00 | 98 | 1011.5 |
| 20260510094107 | 9 | 107 | 0.0 | 0.0 | 0.00 | 0.41 | 0.00 | 98 | 1011.4 |
| 20260510094007 | 10 | 107 | 0.0 | 0.0 | 0.00 | 0.41 | 0.00 | 98 | 1011.5 |
| 20260510093908 | 10 | 107 | 0.0 | 0.0 | 0.00 | 0.41 | 0.00 | 98 | 1011.4 |
| 20260510093806 | 10 | 107 | 0.0 | 0.0 | 0.00 | 0.41 | 0.00 | 98 | 1011.4 |
| 20260510093704 | 9 | 107 | 0.0 | 0.0 | 0.00 | 0.41 | 0.00 | 98 | 1011.4 |
| 20260510093606 | 10 | 107 | 0.0 | 0.0 | 0.00 | 0.41 | 0.00 | 98 | 1011.5 |
| 20260510093503 | 9 | 107 | 0.0 | 0.0 | 0.00 | 0.41 | 0.00 | 98 | 1011.6 |
| 20260510093419 | 10 | 107 | 0.0 | 0.0 | 0.00 | 0.41 | 0.00 | 98 | 1011.6 |
| 20260510093159 | 10 | 107 | 0.0 | 0.0 | 0.00 | 0.41 | 0.00 | 98 | 1011.6 |
| 20260510093102 | 10 | 107 | 0.0 | 0.0 | 0.00 | 0.41 | 0.00 | 98 | 1011.6 |
| 20260510092959 | 10 | 107 | 0.0 | 0.0 | 0.00 | 0.41 | 0.00 | 98 | 1011.5 |
| 20260510092902 | 10 | 107 | 0.0 | 3.2 | 0.00 | 0.41 | 0.00 | 98 | 1011.5 |
| 20260510092757 | 10 | 107 | 0.0 | 3.2 | 0.00 | 0.41 | 0.00 | 98 | 1011.4 |
| 20260510092712 | 10 | 107 | 0.0 | 3.2 | 0.00 | 0.41 | 0.00 | 98 | 1011.4 |
| 20260510092456 | 10 | 107 | 0.0 | 3.2 | 0.00 | 0.41 | 0.00 | 98 | 1011.4 |
| 20260510092410 | 10 | 107 | 0.0 | 3.2 | 0.00 | 0.41 | 0.00 | 98 | 1011.4 |
| 20260510092208 | 10 | 107 | 1.6 | 6.4 | 0.00 | 0.41 | 0.00 | 98 | 1011.3 |
| 20260510091951 | 10 | 107 | 1.6 | 6.4 | 0.00 | 0.41 | 0.00 | 98 | 1011.3 |
| 20260510091854 | 10 | 107 | 1.6 | 6.4 | 0.00 | 0.41 | 0.00 | 98 | 1011.4 |
| 20260510091750 | 10 | 107 | 1.6 | 6.4 | 0.00 | 0.41 | 0.00 | 98 | 1011.4 |
| 20260510091650 | 10 | 107 | 1.6 | 6.4 | 0.00 | 0.41 | 0.00 | 98 | 1011.4 |
| 20260510091602 | 10 | 107 | 1.6 | 6.4 | 0.00 | 0.41 | 0.00 | 98 | 1011.4 |
| 20260510091348 | 10 | 107 | 1.6 | 6.4 | 0.00 | 0.41 | 0.00 | 98 | 1011.4 |
| 20260510091245 | 10 | 94 | 1.6 | 6.4 | 0.00 | 0.41 | 0.00 | 98 | 1011.4 |
| 20260510091146 | 10 | 71 | 1.6 | 4.8 | 0.00 | 0.41 | 0.00 | 98 | 1011.4 |
| 20260510091042 | 10 | 71 | 0.0 | 4.8 | 0.00 | 0.41 | 0.00 | 98 | 1011.4 |
| 20260510090943 | 10 | 65 | 0.0 | 4.8 | 0.00 | 0.41 | 0.00 | 98 | 1011.4 |
| 20260510090857 | 10 | 64 | 0.0 | 4.8 | 0.00 | 0.41 | 0.00 | 98 | 1011.4 |
| 20260510090641 | 10 | 327 | 0.0 | 0.0 | 0.00 | 0.41 | 0.00 | 98 | 1011.4 |
| 20260510090540 | 10 | 327 | 0.0 | 0.0 | 0.00 | 0.41 | 0.00 | 98 | 1011.5 |
| 20260510090441 | 10 | 327 | 0.0 | 0.0 | 0.00 | 0.41 | 0.00 | 98 | 1011.5 |
| 20260510090340 | 10 | 327 | 0.0 | 0.0 | 0.00 | 0.41 | 0.00 | 98 | 1011.6 |
| 20260510090309 | 10 | 327 | 0.0 | 0.0 | 0.00 | 0.41 | 0.00 | 98 | 1011.5 |
| 20260510085935 | 10 | 327 | 0.0 | 0.0 | 0.00 | 0.41 | 0.00 | 98 | 1011.6 |
| 20260510085836 | 10 | 327 | 0.0 | 0.0 | 0.00 | 0.41 | 0.00 | 98 | 1011.7 |
| 20260510085749 | 10 | 327 | 0.0 | 0.0 | 0.00 | 0.41 | 0.00 | 98 | 1011.7 |
| 20260510085532 | 10 | 318 | 0.0 | 0.0 | 0.00 | 0.41 | 0.00 | 98 | 1011.7 |
| 20260510085431 | 10 | 318 | 0.0 | 0.0 | 0.00 | 0.41 | 0.00 | 98 | 1011.8 |
| 20260510085330 | 10 | 318 | 0.0 | 0.0 | 0.00 | 0.41 | 0.00 | 98 | 1011.8 |
| 20260510085229 | 10 | 318 | 0.0 | 0.0 | 0.00 | 0.41 | 0.00 | 98 | 1011.8 |
| 20260510085129 | 10 | 318 | 0.0 | 0.0 | 0.00 | 0.41 | 0.00 | 98 | 1011.8 |
| 20260510085027 | 10 | 318 | 0.0 | 0.0 | 0.00 | 0.41 | 0.00 | 98 | 1011.8 |
| 20260510084955 | 10 | 318 | 0.0 | 0.0 | 0.00 | 0.41 | 0.00 | 98 | 1011.7 |
| 20260510084626 | 10 | 318 | 0.0 | 0.0 | 0.00 | 0.41 | 0.00 | 98 | 1011.8 |
| 20260510084539 | 10 | 318 | 0.0 | 0.0 | 0.00 | 0.41 | 0.00 | 98 | 1011.7 |
| 20260510084324 | 10 | 318 | 0.0 | 0.0 | 0.00 | 0.41 | 0.00 | 98 | 1011.7 |
| 20260510084223 | 10 | 318 | 0.0 | 0.0 | 0.00 | 0.41 | 0.00 | 98 | 1011.7 |
| 20260510084122 | 10 | 318 | 0.0 | 0.0 | 0.00 | 0.41 | 0.00 | 98 | 1011.7 |
| 20260510084019 | 10 | 318 | 0.0 | 1.6 | 0.00 | 0.41 | 0.00 | 98 | 1011.8 |
| 20260510083920 | 10 | 318 | 0.0 | 4.8 | 0.00 | 0.41 | 0.00 | 98 | 1011.8 |
| 20260510083820 | 10 | 318 | 0.0 | 4.8 | 0.00 | 0.41 | 0.00 | 98 | 1011.8 |
| 20260510083717 | 10 | 318 | 0.0 | 4.8 | 0.00 | 0.41 | 0.00 | 98 | 1011.8 |
| 20260510083615 | 10 | 318 | 0.0 | 4.8 | 0.00 | 0.41 | 0.00 | 98 | 1011.8 |
| 20260510083518 | 10 | 318 | 0.0 | 4.8 | 0.00 | 0.41 | 0.00 | 98 | 1011.8 |
| 20260510083416 | 10 | 318 | 0.0 | 4.8 | 0.00 | 0.41 | 0.00 | 98 | 1011.8 |
| 20260510083316 | 10 | 318 | 1.6 | 4.8 | 0.00 | 0.41 | 0.00 | 98 | 1011.8 |
| 20260510083214 | 10 | 318 | 1.6 | 4.8 | 0.00 | 0.41 | 0.00 | 98 | 1011.7 |
| 20260510083113 | 10 | 318 | 1.6 | 4.8 | 0.00 | 0.41 | 0.00 | 98 | 1011.8 |
| 20260510083012 | 10 | 319 | 1.6 | 4.8 | 0.00 | 0.41 | 0.00 | 98 | 1011.7 |
| 20260510082930 | 10 | 323 | 0.0 | 4.8 | 0.00 | 0.41 | 0.00 | 98 | 1011.8 |
| 20260510082709 | 10 | 323 | 0.0 | 4.8 | 0.00 | 0.41 | 0.00 | 98 | 1011.7 |
| 20260510082607 | 9 | 323 | 0.0 | 4.8 | 0.00 | 0.41 | 0.00 | 98 | 1011.7 |
| 20260510082507 | 9 | 323 | 0.0 | 4.8 | 0.00 | 0.41 | 0.00 | 98 | 1011.7 |
| 20260510082407 | 9 | 323 | 0.0 | 4.8 | 0.00 | 0.41 | 0.00 | 98 | 1011.8 |
| 20260510082307 | 9 | 323 | 0.0 | 4.8 | 0.00 | 0.41 | 0.00 | 98 | 1011.8 |
| 20260510082206 | 9 | 355 | 0.0 | 4.8 | 0.00 | 0.41 | 0.00 | 98 | 1011.8 |
| 20260510082103 | 9 | 355 | 0.0 | 4.8 | 0.00 | 0.41 | 0.00 | 98 | 1011.8 |
| 20260510082002 | 9 | 355 | 1.6 | 4.8 | 0.00 | 0.41 | 0.00 | 98 | 1011.8 |
| 20260510081903 | 9 | 355 | 1.6 | 4.8 | 0.00 | 0.41 | 0.00 | 98 | 1011.8 |
| 20260510081804 | 9 | 355 | 1.6 | 4.8 | 0.00 | 0.41 | 0.00 | 98 | 1011.8 |
| 20260510081703 | 9 | 5 | 1.6 | 4.8 | 0.00 | 0.41 | 0.00 | 98 | 1011.8 |
| 20260510081618 | 9 | 355 | 1.6 | 4.8 | 0.00 | 0.41 | 0.00 | 98 | 1011.8 |
| 20260510081401 | 9 | 0 | 1.6 | 6.4 | 0.00 | 0.41 | 0.00 | 98 | 1011.7 |
| 20260510081301 | 9 | 0 | 1.6 | 6.4 | 0.00 | 0.41 | 0.00 | 98 | 1011.7 |
| 20260510081202 | 9 | 350 | 1.6 | 6.4 | 0.00 | 0.41 | 0.00 | 98 | 1011.7 |
| 20260510081059 | 9 | 339 | 1.6 | 6.4 | 0.00 | 0.41 | 0.00 | 98 | 1011.7 |
| 20260510080959 | 9 | 30 | 1.6 | 6.4 | 0.00 | 0.41 | 0.00 | 98 | 1011.6 |
| 20260510080856 | 9 | 30 | 1.6 | 6.4 | 0.00 | 0.41 | 0.00 | 98 | 1011.5 |
| 20260510080756 | 9 | 30 | 3.2 | 6.4 | 0.00 | 0.41 | 0.00 | 98 | 1011.5 |
| 20260510080656 | 9 | 30 | 3.2 | 9.7 | 0.00 | 0.41 | 0.00 | 98 | 1011.6 |
| 20260510080557 | 9 | 30 | 3.2 | 9.7 | 0.00 | 0.41 | 0.00 | 98 | 1011.6 |
| 20260510080509 | 9 | 326 | 3.2 | 9.7 | 0.00 | 0.41 | 0.00 | 98 | 1011.6 |
| 20260510080326 | 9 | 323 | 3.2 | 9.7 | 0.00 | 0.41 | 0.00 | 98 | 1011.5 |
| 20260510075954 | 9 | 324 | 1.6 | 9.7 | 0.00 | 0.41 | 0.00 | 98 | 1011.4 |
| 20260510075853 | 9 | 324 | 1.6 | 9.7 | 0.00 | 0.41 | 0.00 | 98 | 1011.5 |
| 20260510075752 | 9 | 275 | 1.6 | 9.7 | 0.00 | 0.41 | 0.00 | 98 | 1011.6 |
| 20260510075652 | 10 | 281 | 1.6 | 6.4 | 0.00 | 0.41 | 0.00 | 98 | 1011.6 |
| 20260510075551 | 9 | 318 | 1.6 | 6.4 | 0.00 | 0.41 | 0.00 | 98 | 1011.6 |
| 20260510075450 | 10 | 314 | 0.0 | 6.4 | 0.00 | 0.41 | 0.00 | 98 | 1011.4 |
| 20260510075350 | 10 | 299 | 0.0 | 6.4 | 0.00 | 0.41 | 0.00 | 98 | 1011.2 |
| 20260510075248 | 10 | 110 | 0.0 | 0.0 | 0.00 | 0.41 | 0.00 | 98 | 1011.1 |
| 20260510075149 | 10 | 110 | 0.0 | 0.0 | 0.00 | 0.41 | 0.00 | 98 | 1011.0 |
| 20260510075048 | 10 | 110 | 0.0 | 0.0 | 0.00 | 0.41 | 0.00 | 98 | 1010.9 |
| 20260510075001 | 10 | 110 | 0.0 | 0.0 | 0.00 | 0.41 | 0.00 | 98 | 1010.9 |
| 20260510074743 | 10 | 110 | 0.0 | 0.0 | 0.00 | 0.41 | 0.00 | 98 | 1010.9 |
| 20260510074644 | 10 | 110 | 0.0 | 0.0 | 0.00 | 0.41 | 0.00 | 98 | 1010.8 |
| 20260510074542 | 10 | 110 | 0.0 | 0.0 | 0.00 | 0.41 | 0.00 | 98 | 1010.9 |
| 20260510074442 | 10 | 110 | 0.0 | 0.0 | 0.00 | 0.41 | 0.00 | 98 | 1010.9 |
| 20260510074342 | 10 | 110 | 0.0 | 0.0 | 0.00 | 0.41 | 0.00 | 98 | 1010.9 |
| 20260510074241 | 10 | 110 | 0.0 | 0.0 | 0.00 | 0.41 | 0.00 | 98 | 1010.9 |
| 20260510074139 | 10 | 110 | 0.0 | 0.0 | 0.00 | 0.41 | 0.00 | 98 | 1010.9 |
| 20260510074037 | 10 | 110 | 0.0 | 0.0 | 0.00 | 0.41 | 0.00 | 98 | 1010.9 |
| 20260510073938 | 10 | 110 | 0.0 | 0.0 | 0.00 | 0.41 | 0.00 | 98 | 1010.9 |
| 20260510073838 | 10 | 110 | 0.0 | 0.0 | 0.00 | 0.41 | 0.00 | 98 | 1010.9 |
| 20260510073736 | 10 | 110 | 0.0 | 0.0 | 0.00 | 0.41 | 0.00 | 98 | 1010.9 |
| 20260510073650 | 10 | 110 | 0.0 | 0.0 | 0.00 | 0.41 | 0.00 | 98 | 1010.9 |
| 20260510073435 | 10 | 110 | 0.0 | 0.0 | 0.00 | 0.41 | 0.00 | 98 | 1010.9 |
| 20260510073348 | 10 | 110 | 0.0 | 0.0 | 0.00 | 0.41 | 0.00 | 98 | 1010.9 |
| 20260510073135 | 10 | 110 | 0.0 | 0.0 | 0.00 | 0.41 | 0.00 | 98 | 1010.9 |
| 20260510073048 | 10 | 110 | 0.0 | 0.0 | 0.00 | 0.41 | 0.00 | 98 | 1010.9 |
| 20260510072834 | 10 | 110 | 0.0 | 0.0 | 0.00 | 0.41 | 0.00 | 98 | 1010.9 |
| 20260510072734 | 10 | 110 | 0.0 | 0.0 | 0.00 | 0.41 | 0.00 | 98 | 1010.9 |
| 20260510072635 | 10 | 110 | 0.0 | 0.0 | 0.00 | 0.41 | 0.00 | 98 | 1010.8 |
| 20260510072549 | 10 | 110 | 0.0 | 0.0 | 0.00 | 0.41 | 0.00 | 98 | 1010.8 |
| 20260510072334 | 10 | 110 | 0.0 | 0.0 | 0.00 | 0.41 | 0.00 | 98 | 1010.8 |
| 20260510072249 | 10 | 110 | 0.0 | 0.0 | 0.00 | 0.41 | 0.00 | 98 | 1010.8 |
| 20260510072034 | 10 | 110 | 0.0 | 0.0 | 0.00 | 0.41 | 0.00 | 98 | 1010.8 |
| 20260510071936 | 10 | 110 | 0.0 | 0.0 | 0.00 | 0.41 | 0.00 | 98 | 1010.9 |
| 20260510071834 | 10 | 110 | 0.0 | 0.0 | 0.00 | 0.41 | 0.00 | 98 | 1010.9 |
| 20260510071734 | 10 | 110 | 0.0 | 0.0 | 0.00 | 0.41 | 0.00 | 98 | 1010.9 |
| 20260510071650 | 10 | 110 | 0.0 | 0.0 | 0.00 | 0.41 | 0.00 | 98 | 1010.9 |
| 20260510071435 | 10 | 110 | 0.0 | 0.0 | 0.00 | 0.41 | 0.00 | 98 | 1010.8 |
| 20260510071347 | 10 | 110 | 0.0 | 0.0 | 0.00 | 0.41 | 0.00 | 98 | 1010.8 |
| 20260510071134 | 10 | 110 | 0.0 | 0.0 | 0.00 | 0.41 | 0.00 | 98 | 1010.8 |
| 20260510071035 | 10 | 110 | 0.0 | 0.0 | 0.00 | 0.41 | 0.00 | 98 | 1010.8 |
| 20260510070948 | 10 | 110 | 0.0 | 0.0 | 0.00 | 0.41 | 0.00 | 98 | 1010.8 |
| 20260510070749 | 10 | 110 | 0.0 | 0.0 | 0.00 | 0.41 | 0.00 | 98 | 1010.9 |
| 20260510070534 | 10 | 110 | 0.0 | 0.0 | 0.00 | 0.41 | 0.00 | 98 | 1010.9 |
| 20260510070433 | 10 | 110 | 0.0 | 0.0 | 0.00 | 0.41 | 0.00 | 98 | 1010.9 |
| 20260510070333 | 10 | 110 | 0.0 | 0.0 | 0.00 | 0.41 | 0.00 | 98 | 1010.9 |
| 20260510070235 | 10 | 110 | 0.0 | 0.0 | 0.00 | 0.41 | 0.00 | 98 | 1010.9 |
| 20260510070135 | 10 | 110 | 0.0 | 0.0 | 0.00 | 0.41 | 0.00 | 98 | 1010.9 |
| 20260510070104 | 10 | 110 | 0.0 | 0.0 | 0.00 | 0.41 | 0.00 | 98 | 1010.9 |
| 20260510065750 | 10 | 110 | 0.0 | 0.0 | 0.00 | 0.41 | 0.00 | 98 | 1010.9 |
| 20260510065535 | 10 | 110 | 0.0 | 0.0 | 0.00 | 0.41 | 0.00 | 98 | 1010.9 |
| 20260510065434 | 10 | 110 | 0.0 | 0.0 | 0.00 | 0.41 | 0.00 | 98 | 1010.9 |
| 20260510065334 | 10 | 110 | 0.0 | 0.0 | 0.00 | 0.41 | 0.00 | 98 | 1011.0 |
| 20260510065235 | 10 | 110 | 0.0 | 0.0 | 0.00 | 0.41 | 0.00 | 98 | 1011.0 |
| 20260510065148 | 10 | 110 | 0.0 | 0.0 | 0.00 | 0.41 | 0.00 | 98 | 1011.0 |
| 20260510064934 | 10 | 110 | 0.0 | 0.0 | 0.00 | 0.41 | 0.00 | 98 | 1011.1 |
| 20260510064835 | 10 | 110 | 0.0 | 0.0 | 0.00 | 0.41 | 0.00 | 98 | 1011.0 |
| 20260510064733 | 10 | 110 | 0.0 | 0.0 | 0.00 | 0.41 | 0.00 | 98 | 1011.1 |
| 20260510064633 | 10 | 110 | 0.0 | 0.0 | 0.00 | 0.41 | 0.00 | 98 | 1011.1 |
| 20260510064534 | 10 | 110 | 0.0 | 0.0 | 0.00 | 0.41 | 0.00 | 98 | 1011.0 |
| 20260510064434 | 10 | 110 | 0.0 | 0.0 | 0.00 | 0.41 | 0.00 | 98 | 1011.1 |
| 20260510064333 | 10 | 110 | 0.0 | 0.0 | 0.00 | 0.41 | 0.00 | 98 | 1011.1 |
| 20260510064235 | 10 | 110 | 0.0 | 0.0 | 0.00 | 0.41 | 0.00 | 98 | 1011.1 |
| 20260510064134 | 10 | 110 | 0.0 | 0.0 | 0.00 | 0.41 | 0.00 | 98 | 1011.0 |
| 20260510064034 | 10 | 110 | 0.0 | 0.0 | 0.00 | 0.41 | 0.00 | 98 | 1011.0 |
| 20260510063935 | 10 | 110 | 0.0 | 0.0 | 0.00 | 0.41 | 0.00 | 98 | 1011.1 |
| 20260510063834 | 10 | 110 | 0.0 | 0.0 | 0.00 | 0.41 | 0.00 | 98 | 1011.0 |
| 20260510063733 | 10 | 110 | 0.0 | 0.0 | 0.00 | 0.41 | 0.00 | 98 | 1011.0 |
| 20260510063651 | 10 | 110 | 0.0 | 0.0 | 0.00 | 0.41 | 0.00 | 98 | 1011.0 |
| 20260510063435 | 10 | 110 | 0.0 | 0.0 | 0.00 | 0.41 | 0.00 | 98 | 1011.1 |
| 20260510063335 | 10 | 110 | 0.0 | 0.0 | 0.00 | 0.41 | 0.00 | 98 | 1011.1 |
| 20260510063233 | 10 | 110 | 0.0 | 0.0 | 0.00 | 0.41 | 0.00 | 98 | 1011.1 |
| 20260510063152 | 10 | 110 | 0.0 | 0.0 | 0.00 | 0.41 | 0.00 | 98 | 1011.1 |
| 20260510062934 | 10 | 110 | 0.0 | 0.0 | 0.00 | 0.41 | 0.00 | 98 | 1011.1 |
| 20260510062835 | 10 | 110 | 0.0 | 0.0 | 0.00 | 0.41 | 0.00 | 98 | 1011.1 |
| 20260510062734 | 10 | 110 | 0.0 | 0.0 | 0.00 | 0.41 | 0.00 | 98 | 1011.1 |
| 20260510062635 | 10 | 110 | 0.0 | 0.0 | 0.00 | 0.41 | 0.00 | 98 | 1011.1 |
| 20260510062533 | 10 | 110 | 0.0 | 0.0 | 0.00 | 0.41 | 0.00 | 98 | 1011.1 |
| 20260510062435 | 10 | 110 | 0.0 | 0.0 | 0.00 | 0.41 | 0.00 | 98 | 1011.1 |
| 20260510062333 | 10 | 110 | 0.0 | 0.0 | 0.00 | 0.41 | 0.00 | 98 | 1011.1 |
| 20260510062234 | 10 | 111 | 0.0 | 0.0 | 0.00 | 0.41 | 0.00 | 98 | 1011.1 |
| 20260510062132 | 10 | 111 | 0.0 | 0.0 | 0.00 | 0.41 | 0.00 | 98 | 1011.1 |
| 20260510062032 | 10 | 111 | 0.0 | 0.0 | 0.00 | 0.41 | 0.00 | 98 | 1011.1 |
| 20260510061947 | 10 | 111 | 0.0 | 0.0 | 0.00 | 0.41 | 0.00 | 98 | 1011.0 |
| 20260510061732 | 10 | 111 | 0.0 | 0.0 | 0.00 | 0.41 | 0.00 | 98 | 1011.1 |
| 20260510061633 | 10 | 111 | 0.0 | 0.0 | 0.00 | 0.41 | 0.00 | 98 | 1011.0 |
| 20260510061533 | 10 | 111 | 0.0 | 0.0 | 0.00 | 0.41 | 0.00 | 98 | 1011.0 |
| 20260510061432 | 10 | 111 | 0.0 | 0.0 | 0.00 | 0.41 | 0.00 | 98 | 1011.0 |
| 20260510061331 | 10 | 111 | 0.0 | 0.0 | 0.00 | 0.41 | 0.00 | 98 | 1010.9 |
| 20260510061233 | 10 | 111 | 0.0 | 0.0 | 0.00 | 0.41 | 0.00 | 98 | 1010.9 |
| 20260510061147 | 10 | 111 | 0.0 | 0.0 | 0.00 | 0.41 | 0.00 | 98 | 1010.9 |
| 20260510060947 | 10 | 111 | 0.0 | 0.0 | 0.00 | 0.41 | 0.00 | 98 | 1010.8 |
| 20260510060732 | 10 | 111 | 0.0 | 0.0 | 0.00 | 0.41 | 0.00 | 98 | 1010.8 |
| 20260510060633 | 10 | 111 | 0.0 | 0.0 | 0.00 | 0.41 | 0.00 | 98 | 1010.8 |
| 20260510060533 | 10 | 111 | 0.0 | 0.0 | 0.00 | 0.41 | 0.00 | 98 | 1010.8 |
| 20260510060433 | 10 | 111 | 0.0 | 0.0 | 0.00 | 0.41 | 0.00 | 98 | 1010.8 |
| 20260510060332 | 10 | 111 | 0.0 | 0.0 | 0.00 | 0.41 | 0.00 | 98 | 1010.8 |
| 20260510060231 | 10 | 111 | 0.0 | 0.0 | 0.00 | 0.41 | 0.00 | 98 | 1010.8 |
| 20260510060148 | 10 | 111 | 0.0 | 0.0 | 0.00 | 0.41 | 0.00 | 98 | 1010.8 |
| 20260510055932 | 10 | 111 | 0.0 | 0.0 | 0.00 | 0.41 | 0.00 | 98 | 1010.8 |
| 20260510055832 | 10 | 111 | 0.0 | 0.0 | 0.00 | 0.41 | 0.00 | 98 | 1010.7 |
| 20260510055734 | 10 | 111 | 0.0 | 0.0 | 0.00 | 0.41 | 0.00 | 98 | 1010.8 |
| 20260510055632 | 10 | 111 | 0.0 | 0.0 | 0.00 | 0.41 | 0.00 | 98 | 1010.7 |
| 20260510055531 | 10 | 111 | 0.0 | 0.0 | 0.00 | 0.41 | 0.00 | 98 | 1010.7 |
| 20260510055434 | 10 | 111 | 0.0 | 0.0 | 0.00 | 0.41 | 0.00 | 98 | 1010.7 |
| 20260510055331 | 10 | 111 | 0.0 | 0.0 | 0.00 | 0.41 | 0.00 | 98 | 1010.7 |
| 20260510055306 | 10 | 111 | 0.0 | 0.0 | 0.00 | 0.41 | 0.00 | 98 | 1010.8 |
| 20260510054932 | 10 | 111 | 0.0 | 0.0 | 0.00 | 0.41 | 0.00 | 98 | 1010.7 |
| 20260510054832 | 10 | 111 | 0.0 | 0.0 | 0.00 | 0.41 | 0.00 | 98 | 1010.8 |
| 20260510054734 | 10 | 111 | 0.0 | 0.0 | 0.00 | 0.41 | 0.00 | 98 | 1010.7 |
| 20260510054631 | 10 | 111 | 0.0 | 0.0 | 0.00 | 0.41 | 0.00 | 98 | 1010.8 |
| 20260510054532 | 10 | 111 | 0.0 | 0.0 | 0.00 | 0.41 | 0.00 | 98 | 1010.8 |
| 20260510054433 | 10 | 111 | 0.0 | 0.0 | 0.00 | 0.41 | 0.00 | 98 | 1010.8 |
| 20260510054332 | 10 | 111 | 0.0 | 0.0 | 0.00 | 0.41 | 0.00 | 98 | 1010.8 |
| 20260510054234 | 10 | 111 | 0.0 | 0.0 | 0.00 | 0.41 | 0.00 | 98 | 1010.9 |
| 20260510054131 | 10 | 111 | 0.0 | 0.0 | 0.00 | 0.41 | 0.00 | 98 | 1010.8 |
| 20260510054032 | 10 | 111 | 0.0 | 0.0 | 0.00 | 0.41 | 0.00 | 98 | 1010.8 |
| 20260510053932 | 10 | 111 | 0.0 | 0.0 | 0.00 | 0.41 | 0.00 | 98 | 1010.8 |
| 20260510053832 | 10 | 111 | 0.0 | 0.0 | 0.00 | 0.41 | 0.00 | 98 | 1010.8 |
| 20260510053751 | 10 | 111 | 0.0 | 0.0 | 0.00 | 0.41 | 0.00 | 98 | 1010.9 |
| 20260510053547 | 10 | 111 | 0.0 | 0.0 | 0.00 | 0.41 | 0.00 | 98 | 1010.9 |
| 20260510053331 | 10 | 111 | 0.0 | 0.0 | 0.00 | 0.41 | 0.00 | 98 | 1010.9 |
| 20260510053233 | 10 | 111 | 0.0 | 0.0 | 0.00 | 0.41 | 0.00 | 98 | 1010.9 |
| 20260510053145 | 10 | 111 | 0.0 | 0.0 | 0.00 | 0.41 | 0.00 | 98 | 1010.9 |
| 20260510052931 | 10 | 111 | 0.0 | 0.0 | 0.00 | 0.41 | 0.00 | 98 | 1010.9 |
| 20260510052832 | 10 | 111 | 0.0 | 0.0 | 0.00 | 0.41 | 0.00 | 98 | 1010.9 |
| 20260510052746 | 10 | 111 | 0.0 | 0.0 | 0.00 | 0.41 | 0.00 | 98 | 1010.8 |
| 20260510052531 | 10 | 111 | 0.0 | 0.0 | 0.00 | 0.41 | 0.00 | 97 | 1010.8 |
| 20260510052447 | 10 | 111 | 0.0 | 0.0 | 0.00 | 0.41 | 0.00 | 97 | 1010.8 |
| 20260510052233 | 10 | 111 | 0.0 | 0.0 | 0.00 | 0.41 | 0.00 | 97 | 1010.8 |
| 20260510052131 | 10 | 111 | 0.0 | 0.0 | 0.00 | 0.41 | 0.00 | 97 | 1010.8 |
| 20260510052031 | 10 | 111 | 0.0 | 0.0 | 0.00 | 0.41 | 0.00 | 97 | 1010.8 |
| 20260510051933 | 10 | 111 | 0.0 | 0.0 | 0.00 | 0.41 | 0.00 | 97 | 1010.8 |
| 20260510051832 | 10 | 111 | 0.0 | 0.0 | 0.00 | 0.41 | 0.00 | 97 | 1010.8 |
| 20260510051730 | 10 | 111 | 0.0 | 0.0 | 0.00 | 0.41 | 0.00 | 97 | 1010.8 |
| 20260510051648 | 10 | 111 | 0.0 | 0.0 | 0.00 | 0.41 | 0.00 | 97 | 1010.8 |
| 20260510051431 | 10 | 111 | 0.0 | 0.0 | 0.00 | 0.41 | 0.00 | 97 | 1010.8 |
| 20260510051330 | 10 | 111 | 0.0 | 0.0 | 0.00 | 0.41 | 0.00 | 97 | 1010.8 |
| 20260510051230 | 10 | 111 | 0.0 | 0.0 | 0.00 | 0.41 | 0.00 | 97 | 1010.8 |
| 20260510051127 | 9 | 111 | 0.0 | 0.0 | 0.00 | 0.41 | 0.00 | 97 | 1010.8 |
| 20260510051028 | 9 | 111 | 0.0 | 0.0 | 0.00 | 0.41 | 0.00 | 97 | 1010.8 |
| 20260510050926 | 9 | 111 | 0.0 | 0.0 | 0.00 | 0.41 | 0.00 | 97 | 1010.9 |
| 20260510050839 | 9 | 111 | 0.0 | 0.0 | 0.00 | 0.41 | 0.00 | 97 | 1010.9 |
| 20260510050639 | 9 | 111 | 0.0 | 0.0 | 0.00 | 0.41 | 0.00 | 97 | 1010.9 |
| 20260510050422 | 9 | 111 | 0.0 | 0.0 | 0.00 | 0.41 | 0.00 | 97 | 1010.9 |
| 20260510050321 | 9 | 111 | 0.0 | 0.0 | 0.00 | 0.41 | 0.00 | 97 | 1011.0 |
| 20260510050221 | 9 | 111 | 0.0 | 0.0 | 0.00 | 0.41 | 0.00 | 97 | 1011.0 |
| 20260510050120 | 9 | 111 | 0.0 | 0.0 | 0.00 | 0.41 | 0.00 | 97 | 1011.0 |
| 20260510050036 | 9 | 111 | 0.0 | 0.0 | 0.00 | 0.41 | 0.00 | 98 | 1011.0 |
| 20260510045831 | 9 | 111 | 0.0 | 0.0 | 0.00 | 0.41 | 0.00 | 98 | 1011.0 |
| 20260510045616 | 9 | 111 | 0.0 | 0.0 | 0.00 | 0.41 | 0.00 | 98 | 1011.0 |
| 20260510045515 | 9 | 111 | 0.0 | 0.0 | 0.00 | 0.41 | 0.00 | 98 | 1011.0 |
| 20260510045415 | 9 | 111 | 0.0 | 0.0 | 0.00 | 0.41 | 0.00 | 98 | 1011.0 |
| 20260510045315 | 9 | 111 | 0.0 | 0.0 | 0.00 | 0.41 | 0.00 | 98 | 1011.1 |
| 20260510045212 | 9 | 111 | 0.0 | 0.0 | 0.00 | 0.41 | 0.00 | 98 | 1011.1 |
| 20260510045112 | 9 | 111 | 0.0 | 0.0 | 0.00 | 0.41 | 0.00 | 98 | 1011.0 |
| 20260510045012 | 9 | 111 | 0.0 | 0.0 | 0.00 | 0.41 | 0.00 | 97 | 1011.0 |
| 20260510044910 | 9 | 111 | 0.0 | 0.0 | 0.00 | 0.41 | 0.00 | 98 | 1011.0 |
| 20260510044809 | 9 | 111 | 0.0 | 0.0 | 0.00 | 0.41 | 0.00 | 98 | 1011.0 |
| 20260510044708 | 9 | 111 | 0.0 | 0.0 | 0.00 | 0.41 | 0.00 | 97 | 1011.0 |
| 20260510044608 | 9 | 111 | 0.0 | 0.0 | 0.00 | 0.41 | 0.00 | 98 | 1011.0 |
| 20260510044505 | 9 | 111 | 0.0 | 0.0 | 0.00 | 0.41 | 0.00 | 98 | 1011.0 |
| 20260510044406 | 9 | 111 | 0.0 | 0.0 | 0.00 | 0.41 | 0.00 | 98 | 1011.0 |
| 20260510044305 | 9 | 111 | 0.0 | 0.0 | 0.00 | 0.41 | 0.00 | 98 | 1010.9 |
| 20260510044206 | 9 | 111 | 0.0 | 0.0 | 0.00 | 0.41 | 0.00 | 98 | 1011.0 |
| 20260510044105 | 9 | 111 | 0.0 | 0.0 | 0.00 | 0.41 | 0.00 | 97 | 1011.0 |
| 20260510044005 | 9 | 111 | 0.0 | 0.0 | 0.00 | 0.41 | 0.00 | 97 | 1011.0 |
| 20260510043904 | 9 | 111 | 0.0 | 0.0 | 0.00 | 0.41 | 0.00 | 97 | 1011.0 |
| 20260510043818 | 9 | 111 | 0.0 | 0.0 | 0.00 | 0.41 | 0.00 | 97 | 1011.0 |
| 20260510043600 | 9 | 111 | 0.0 | 0.0 | 0.00 | 0.41 | 0.00 | 97 | 1011.0 |
| 20260510043502 | 9 | 111 | 0.0 | 0.0 | 0.00 | 0.41 | 0.00 | 97 | 1011.0 |
| 20260510043359 | 9 | 111 | 0.0 | 0.0 | 0.00 | 0.41 | 0.00 | 97 | 1011.0 |
| 20260510043300 | 9 | 111 | 0.0 | 0.0 | 0.00 | 0.41 | 0.00 | 97 | 1011.1 |
| 20260510043211 | 9 | 111 | 0.0 | 0.0 | 0.00 | 0.41 | 0.00 | 97 | 1011.0 |
| 20260510042958 | 9 | 111 | 0.0 | 0.0 | 0.00 | 0.41 | 0.00 | 97 | 1011.1 |
| 20260510042854 | 9 | 111 | 0.0 | 0.0 | 0.00 | 0.41 | 0.00 | 97 | 1011.1 |
| 20260510042755 | 9 | 111 | 0.0 | 0.0 | 0.00 | 0.41 | 0.00 | 97 | 1011.1 |
| 20260510042653 | 9 | 111 | 0.0 | 0.0 | 0.00 | 0.41 | 0.00 | 97 | 1011.1 |
| 20260510042553 | 9 | 111 | 0.0 | 0.0 | 0.00 | 0.41 | 0.00 | 97 | 1011.1 |
| 20260510042508 | 9 | 111 | 0.0 | 0.0 | 0.00 | 0.41 | 0.00 | 97 | 1011.1 |
| 20260510042253 | 8 | 111 | 0.0 | 0.0 | 0.00 | 0.41 | 0.00 | 97 | 1011.1 |
| 20260510042149 | 8 | 111 | 0.0 | 0.0 | 0.00 | 0.41 | 0.00 | 97 | 1011.2 |
| 20260510042050 | 8 | 111 | 0.0 | 0.0 | 0.00 | 0.41 | 0.00 | 97 | 1011.2 |
| 20260510041948 | 8 | 111 | 0.0 | 0.0 | 0.00 | 0.41 | 0.00 | 97 | 1011.2 |
| 20260510041847 | 8 | 111 | 0.0 | 0.0 | 0.00 | 0.41 | 0.00 | 97 | 1011.2 |
| 20260510041747 | 8 | 111 | 0.0 | 0.0 | 0.00 | 0.41 | 0.00 | 97 | 1011.1 |
| 20260510041646 | 8 | 111 | 0.0 | 0.0 | 0.00 | 0.41 | 0.00 | 97 | 1011.1 |
| 20260510041559 | 8 | 111 | 0.0 | 0.0 | 0.00 | 0.41 | 0.00 | 97 | 1011.1 |
| 20260510041345 | 8 | 111 | 0.0 | 0.0 | 0.00 | 0.41 | 0.00 | 97 | 1011.1 |
| 20260510041243 | 8 | 111 | 0.0 | 0.0 | 0.00 | 0.41 | 0.00 | 97 | 1011.1 |
| 20260510041141 | 8 | 111 | 0.0 | 0.0 | 0.00 | 0.41 | 0.00 | 97 | 1011.1 |
| 20260510041040 | 8 | 111 | 0.0 | 0.0 | 0.00 | 0.41 | 0.00 | 97 | 1011.0 |
| 20260510040954 | 8 | 111 | 0.0 | 0.0 | 0.00 | 0.41 | 0.00 | 97 | 1011.0 |
| 20260510040740 | 8 | 111 | 0.0 | 0.0 | 0.00 | 0.41 | 0.00 | 97 | 1011.0 |
| 20260510040640 | 8 | 111 | 0.0 | 0.0 | 0.00 | 0.41 | 0.00 | 97 | 1011.0 |
| 20260510040541 | 8 | 111 | 0.0 | 0.0 | 0.00 | 0.41 | 0.00 | 97 | 1011.1 |
| 20260510040440 | 8 | 111 | 0.0 | 0.0 | 0.00 | 0.41 | 0.00 | 97 | 1011.0 |
| 20260510040339 | 8 | 111 | 0.0 | 0.0 | 0.00 | 0.41 | 0.00 | 97 | 1011.1 |
| 20260510040239 | 8 | 111 | 0.0 | 0.0 | 0.00 | 0.41 | 0.00 | 97 | 1011.0 |
| 20260510040138 | 8 | 111 | 0.0 | 0.0 | 0.00 | 0.41 | 0.00 | 97 | 1011.1 |
| 20260510040051 | 8 | 111 | 0.0 | 0.0 | 0.00 | 0.41 | 0.00 | 97 | 1011.0 |
| 20260510035838 | 8 | 111 | 0.0 | 0.0 | 0.00 | 0.41 | 0.41 | 97 | 1011.0 |
| 20260510035752 | 8 | 111 | 0.0 | 0.0 | 0.00 | 0.41 | 0.41 | 97 | 1011.0 |
| 20260510035538 | 8 | 111 | 0.0 | 0.0 | 0.00 | 0.41 | 0.41 | 97 | 1011.0 |
| 20260510035437 | 8 | 111 | 0.0 | 0.0 | 0.00 | 0.41 | 0.41 | 97 | 1011.0 |
| 20260510035338 | 8 | 111 | 0.0 | 0.0 | 0.00 | 0.41 | 0.41 | 97 | 1010.9 |
| 20260510035236 | 8 | 111 | 0.0 | 0.0 | 0.00 | 0.41 | 0.41 | 97 | 1011.0 |
| 20260510035138 | 8 | 111 | 0.0 | 0.0 | 0.00 | 0.41 | 0.41 | 97 | 1010.9 |
| 20260510035037 | 8 | 111 | 0.0 | 0.0 | 0.00 | 0.41 | 0.41 | 97 | 1010.9 |
| 20260510034938 | 8 | 111 | 0.0 | 0.0 | 0.00 | 0.41 | 0.41 | 97 | 1010.9 |
| 20260510034836 | 8 | 111 | 0.0 | 0.0 | 0.00 | 0.41 | 0.41 | 97 | 1010.9 |
| 20260510034739 | 8 | 111 | 0.0 | 0.0 | 0.00 | 0.41 | 0.41 | 97 | 1010.9 |
| 20260510034636 | 8 | 111 | 0.0 | 0.0 | 0.00 | 0.41 | 0.41 | 97 | 1011.0 |
| 20260510034537 | 8 | 111 | 0.0 | 0.0 | 0.00 | 0.41 | 0.41 | 97 | 1010.9 |
| 20260510034437 | 8 | 111 | 0.0 | 0.0 | 0.00 | 0.41 | 0.41 | 96 | 1010.9 |
| 20260510034337 | 8 | 111 | 0.0 | 0.0 | 0.00 | 0.41 | 0.41 | 96 | 1011.0 |
| 20260510034237 | 8 | 111 | 0.0 | 0.0 | 0.00 | 0.41 | 0.41 | 96 | 1011.0 |
| 20260510034138 | 8 | 111 | 0.0 | 0.0 | 0.00 | 0.41 | 0.41 | 96 | 1011.0 |
| 20260510034037 | 8 | 111 | 0.0 | 0.0 | 0.00 | 0.41 | 0.41 | 96 | 1011.0 |
| 20260510033937 | 8 | 111 | 0.0 | 0.0 | 0.00 | 0.41 | 0.41 | 96 | 1010.9 |
| 20260510033837 | 8 | 111 | 0.0 | 0.0 | 0.00 | 0.41 | 0.41 | 96 | 1010.9 |
| 20260510033739 | 8 | 111 | 0.0 | 0.0 | 0.00 | 0.41 | 0.41 | 96 | 1010.9 |
| 20260510033637 | 8 | 111 | 0.0 | 0.0 | 0.00 | 0.41 | 0.41 | 96 | 1010.9 |
| 20260510033536 | 8 | 111 | 0.0 | 0.0 | 0.00 | 0.41 | 0.41 | 96 | 1010.9 |
| 20260510033437 | 8 | 111 | 0.0 | 0.0 | 0.00 | 0.41 | 0.41 | 96 | 1010.8 |
| 20260510033338 | 8 | 111 | 0.0 | 0.0 | 0.00 | 0.41 | 0.41 | 96 | 1010.8 |
| 20260510033236 | 8 | 111 | 0.0 | 0.0 | 0.00 | 0.41 | 0.41 | 96 | 1010.8 |
| 20260510033138 | 8 | 111 | 0.0 | 0.0 | 0.00 | 0.41 | 0.41 | 96 | 1010.8 |
| 20260510033037 | 8 | 111 | 0.0 | 0.0 | 0.00 | 0.41 | 0.41 | 96 | 1010.8 |
| 20260510032937 | 8 | 111 | 0.0 | 0.0 | 0.00 | 0.41 | 0.41 | 96 | 1010.8 |
| 20260510032837 | 8 | 111 | 0.0 | 0.0 | 0.00 | 0.41 | 0.41 | 96 | 1010.9 |
| 20260510032752 | 8 | 111 | 0.0 | 0.0 | 0.00 | 0.41 | 0.41 | 96 | 1010.8 |
| 20260510032538 | 8 | 111 | 0.0 | 0.0 | 0.00 | 0.41 | 0.41 | 96 | 1010.8 |
| 20260510032438 | 8 | 111 | 0.0 | 0.0 | 0.00 | 0.41 | 0.41 | 96 | 1010.8 |
| 20260510032338 | 8 | 111 | 0.0 | 0.0 | 0.00 | 0.41 | 0.41 | 96 | 1010.8 |
| 20260510032237 | 8 | 111 | 0.0 | 0.0 | 0.00 | 0.41 | 0.41 | 96 | 1010.7 |
| 20260510032138 | 8 | 111 | 0.0 | 0.0 | 0.00 | 0.41 | 0.41 | 96 | 1010.7 |
| 20260510032036 | 8 | 111 | 0.0 | 0.0 | 0.00 | 0.41 | 0.41 | 96 | 1010.7 |
| 20260510031937 | 8 | 111 | 0.0 | 0.0 | 0.00 | 0.41 | 0.41 | 96 | 1010.8 |
| 20260510031851 | 8 | 111 | 0.0 | 0.0 | 0.00 | 0.41 | 0.41 | 96 | 1010.7 |
| 20260510031637 | 8 | 111 | 0.0 | 0.0 | 0.00 | 0.41 | 0.41 | 96 | 1010.8 |
| 20260510031538 | 8 | 111 | 0.0 | 0.0 | 0.00 | 0.41 | 0.41 | 96 | 1010.8 |
| 20260510031436 | 8 | 111 | 0.0 | 0.0 | 0.00 | 0.41 | 0.41 | 96 | 1010.8 |
| 20260510031338 | 8 | 111 | 0.0 | 0.0 | 0.00 | 0.41 | 0.41 | 96 | 1010.7 |
| 20260510031237 | 8 | 111 | 0.0 | 0.0 | 0.00 | 0.41 | 0.41 | 96 | 1010.7 |
| 20260510031138 | 8 | 111 | 0.0 | 0.0 | 0.00 | 0.41 | 0.41 | 96 | 1010.7 |
| 20260510031037 | 8 | 111 | 0.0 | 0.0 | 0.00 | 0.41 | 0.41 | 96 | 1010.7 |
| 20260510030938 | 8 | 111 | 0.0 | 0.0 | 0.00 | 0.41 | 0.41 | 96 | 1010.7 |
| 20260510030838 | 8 | 111 | 0.0 | 0.0 | 0.00 | 0.41 | 0.41 | 96 | 1010.7 |
| 20260510030736 | 8 | 111 | 0.0 | 0.0 | 0.00 | 0.41 | 0.41 | 96 | 1010.7 |
| 20260510030639 | 8 | 111 | 0.0 | 0.0 | 0.00 | 0.41 | 0.41 | 96 | 1010.7 |
| 20260510030536 | 8 | 111 | 0.0 | 0.0 | 0.00 | 0.41 | 0.41 | 96 | 1010.7 |
| 20260510030437 | 8 | 111 | 0.0 | 0.0 | 0.00 | 0.41 | 0.41 | 96 | 1010.7 |
| 20260510030340 | 8 | 111 | 0.0 | 0.0 | 0.00 | 0.41 | 0.41 | 96 | 1010.7 |
| 20260510030236 | 8 | 111 | 0.0 | 0.0 | 0.00 | 0.41 | 0.41 | 96 | 1010.7 |
| 20260510030151 | 8 | 111 | 0.0 | 0.0 | 0.00 | 0.41 | 0.41 | 96 | 1010.7 |
| 20260510025938 | 8 | 111 | 0.0 | 0.0 | 0.00 | 0.41 | 0.41 | 96 | 1010.6 |
| 20260510025837 | 8 | 111 | 0.0 | 0.0 | 0.00 | 0.41 | 0.41 | 96 | 1010.6 |
| 20260510025738 | 8 | 111 | 0.0 | 0.0 | 0.00 | 0.41 | 0.41 | 96 | 1010.7 |
| 20260510025636 | 8 | 111 | 0.0 | 0.0 | 0.00 | 0.41 | 0.41 | 96 | 1010.7 |
| 20260510025538 | 8 | 111 | 0.0 | 0.0 | 0.00 | 0.41 | 0.41 | 96 | 1010.7 |
| 20260510025436 | 8 | 111 | 0.0 | 0.0 | 0.00 | 0.41 | 0.41 | 96 | 1010.6 |
| 20260510025338 | 8 | 111 | 0.0 | 0.0 | 0.00 | 0.41 | 0.41 | 96 | 1010.6 |
| 20260510025312 | 8 | 111 | 0.0 | 0.0 | 0.00 | 0.41 | 0.41 | 96 | 1010.7 |
| 20260510024937 | 9 | 111 | 0.0 | 0.0 | 0.00 | 0.41 | 0.41 | 96 | 1010.6 |
| 20260510024836 | 9 | 111 | 0.0 | 0.0 | 0.00 | 0.41 | 0.41 | 96 | 1010.6 |
| 20260510024752 | 9 | 111 | 0.0 | 0.0 | 0.00 | 0.41 | 0.41 | 96 | 1010.6 |
| 20260510024537 | 9 | 111 | 0.0 | 0.0 | 0.00 | 0.41 | 0.41 | 96 | 1010.7 |
| 20260510024435 | 9 | 111 | 0.0 | 0.0 | 0.00 | 0.41 | 0.41 | 96 | 1010.7 |
| 20260510024335 | 9 | 111 | 0.0 | 0.0 | 0.00 | 0.41 | 0.41 | 96 | 1010.7 |
| 20260510024233 | 9 | 111 | 0.0 | 0.0 | 0.00 | 0.41 | 0.41 | 96 | 1010.7 |
| 20260510024133 | 9 | 111 | 0.0 | 0.0 | 0.00 | 0.41 | 0.41 | 96 | 1010.6 |
| 20260510024031 | 9 | 111 | 0.0 | 0.0 | 0.00 | 0.41 | 0.41 | 96 | 1010.6 |
| 20260510023931 | 9 | 111 | 0.0 | 0.0 | 0.00 | 0.41 | 0.41 | 96 | 1010.6 |
| 20260510023831 | 9 | 111 | 0.0 | 0.0 | 0.00 | 0.41 | 0.41 | 96 | 1010.6 |
| 20260510023747 | 9 | 111 | 0.0 | 0.0 | 0.00 | 0.41 | 0.41 | 96 | 1010.6 |
| 20260510023543 | 9 | 111 | 0.0 | 0.0 | 0.00 | 0.41 | 0.41 | 96 | 1010.7 |
| 20260510023327 | 9 | 111 | 0.0 | 0.0 | 0.00 | 0.41 | 0.41 | 96 | 1010.7 |
| 20260510023226 | 9 | 111 | 0.0 | 0.0 | 0.00 | 0.41 | 0.41 | 96 | 1010.6 |
| 20260510023153 | 9 | 111 | 0.0 | 0.0 | 0.00 | 0.41 | 0.41 | 96 | 1010.7 |
| 20260510022823 | 9 | 111 | 0.0 | 0.0 | 0.00 | 0.41 | 0.41 | 96 | 1010.6 |
| 20260510022721 | 9 | 111 | 0.0 | 0.0 | 0.00 | 0.41 | 0.41 | 96 | 1010.6 |
| 20260510022621 | 9 | 111 | 0.0 | 0.0 | 0.00 | 0.41 | 0.41 | 96 | 1010.6 |
| 20260510022521 | 9 | 111 | 0.0 | 0.0 | 0.00 | 0.41 | 0.41 | 96 | 1010.6 |
| 20260510022435 | 9 | 111 | 0.0 | 0.0 | 0.00 | 0.41 | 0.41 | 96 | 1010.5 |
| 20260510022219 | 9 | 111 | 0.0 | 0.0 | 0.00 | 0.41 | 0.41 | 96 | 1010.6 |
| 20260510022116 | 9 | 111 | 0.0 | 0.0 | 0.00 | 0.41 | 0.41 | 96 | 1010.7 |
| 20260510022015 | 9 | 111 | 0.0 | 0.0 | 0.00 | 0.41 | 0.41 | 96 | 1010.7 |
| 20260510021916 | 9 | 111 | 0.0 | 0.0 | 0.00 | 0.41 | 0.41 | 96 | 1010.7 |
| 20260510021814 | 9 | 111 | 0.0 | 0.0 | 0.00 | 0.41 | 0.41 | 96 | 1010.7 |
| 20260510021714 | 9 | 111 | 0.0 | 0.0 | 0.00 | 0.41 | 0.41 | 96 | 1010.8 |
| 20260510021612 | 9 | 111 | 0.0 | 0.0 | 0.00 | 0.41 | 0.41 | 96 | 1010.7 |
| 20260510021511 | 9 | 111 | 0.0 | 0.0 | 0.00 | 0.41 | 0.41 | 96 | 1010.7 |
| 20260510021411 | 9 | 111 | 0.0 | 0.0 | 0.00 | 0.41 | 0.41 | 96 | 1010.7 |
| 20260510021311 | 9 | 111 | 0.0 | 0.0 | 0.00 | 0.41 | 0.41 | 96 | 1010.8 |
| 20260510021210 | 9 | 111 | 0.0 | 0.0 | 0.00 | 0.41 | 0.41 | 96 | 1010.8 |
| 20260510021122 | 9 | 111 | 0.0 | 0.0 | 0.00 | 0.41 | 0.41 | 96 | 1010.8 |
| 20260510020906 | 9 | 111 | 0.0 | 0.0 | 0.00 | 0.41 | 0.41 | 96 | 1010.8 |
| 20260510020806 | 10 | 111 | 0.0 | 0.0 | 0.00 | 0.41 | 0.41 | 96 | 1010.8 |
| 20260510020720 | 10 | 111 | 0.0 | 0.0 | 0.00 | 0.41 | 0.41 | 96 | 1010.8 |
| 20260510020504 | 10 | 111 | 0.0 | 0.0 | 0.00 | 0.41 | 0.41 | 96 | 1010.8 |
| 20260510020406 | 10 | 111 | 0.0 | 0.0 | 0.00 | 0.41 | 0.41 | 96 | 1010.8 |
| 20260510020305 | 10 | 111 | 0.0 | 0.0 | 0.00 | 0.41 | 0.41 | 96 | 1010.8 |
| 20260510020205 | 10 | 111 | 0.0 | 0.0 | 0.00 | 0.41 | 0.41 | 96 | 1010.9 |
| 20260510020103 | 10 | 111 | 0.0 | 0.0 | 0.00 | 0.41 | 0.41 | 96 | 1010.9 |
| 20260510020003 | 10 | 111 | 0.0 | 0.0 | 0.00 | 0.41 | 0.41 | 96 | 1010.9 |
| 20260510015902 | 10 | 111 | 0.0 | 0.0 | 0.00 | 0.41 | 0.41 | 96 | 1010.9 |
| 20260510015802 | 10 | 111 | 0.0 | 0.0 | 0.00 | 0.41 | 0.41 | 96 | 1010.8 |
| 20260510015701 | 10 | 111 | 0.0 | 0.0 | 0.00 | 0.41 | 0.41 | 96 | 1010.8 |
| 20260510015616 | 10 | 111 | 0.0 | 0.0 | 0.00 | 0.41 | 0.41 | 96 | 1010.7 |
| 20260510015400 | 10 | 111 | 0.0 | 0.0 | 0.00 | 0.41 | 0.41 | 96 | 1010.8 |
| 20260510015257 | 10 | 111 | 0.0 | 0.0 | 0.00 | 0.41 | 0.41 | 96 | 1010.7 |
| 20260510015158 | 10 | 111 | 0.0 | 0.0 | 0.00 | 0.41 | 0.41 | 96 | 1010.8 |
| 20260510015056 | 10 | 111 | 0.0 | 0.0 | 0.00 | 0.41 | 0.41 | 96 | 1010.8 |
| 20260510014956 | 10 | 111 | 0.0 | 0.0 | 0.00 | 0.41 | 0.41 | 96 | 1010.7 |
| 20260510014853 | 10 | 111 | 0.0 | 0.0 | 0.00 | 0.41 | 0.41 | 96 | 1010.7 |
| 20260510014809 | 10 | 111 | 0.0 | 0.0 | 0.00 | 0.41 | 0.41 | 96 | 1010.7 |
| 20260510014553 | 10 | 111 | 0.0 | 0.0 | 0.00 | 0.41 | 0.41 | 95 | 1010.6 |
| 20260510014452 | 10 | 111 | 0.0 | 0.0 | 0.00 | 0.41 | 0.41 | 96 | 1010.7 |
| 20260510014350 | 10 | 111 | 0.0 | 0.0 | 0.00 | 0.41 | 0.41 | 96 | 1010.7 |
| 20260510014250 | 10 | 111 | 0.0 | 0.0 | 0.00 | 0.41 | 0.41 | 96 | 1010.7 |
| 20260510014151 | 10 | 111 | 0.0 | 0.0 | 0.00 | 0.41 | 0.41 | 96 | 1010.6 |
| 20260510014048 | 10 | 111 | 0.0 | 0.0 | 0.00 | 0.41 | 0.41 | 96 | 1010.7 |
| 20260510013949 | 10 | 111 | 0.0 | 0.0 | 0.00 | 0.41 | 0.41 | 95 | 1010.6 |
| 20260510013847 | 10 | 111 | 0.0 | 0.0 | 0.00 | 0.41 | 0.41 | 95 | 1010.6 |
| 20260510013747 | 10 | 111 | 0.0 | 0.0 | 0.00 | 0.41 | 0.41 | 95 | 1010.6 |
| 20260510013647 | 10 | 111 | 0.0 | 0.0 | 0.00 | 0.41 | 0.41 | 95 | 1010.6 |
| 20260510013546 | 10 | 111 | 0.0 | 0.0 | 0.00 | 0.41 | 0.41 | 96 | 1010.6 |
| 20260510013445 | 10 | 111 | 0.0 | 0.0 | 0.00 | 0.41 | 0.41 | 96 | 1010.6 |
| 20260510013359 | 10 | 111 | 0.0 | 0.0 | 0.00 | 0.41 | 0.41 | 96 | 1010.6 |
| 20260510013143 | 10 | 111 | 0.0 | 0.0 | 0.00 | 0.41 | 0.41 | 96 | 1010.6 |
| 20260510013044 | 10 | 111 | 0.0 | 0.0 | 0.00 | 0.41 | 0.41 | 95 | 1010.7 |
| 20260510012944 | 10 | 111 | 0.0 | 0.0 | 0.00 | 0.41 | 0.41 | 95 | 1010.7 |
| 20260510012900 | 10 | 111 | 0.0 | 0.0 | 0.00 | 0.41 | 0.41 | 95 | 1010.7 |
| 20260510012641 | 10 | 111 | 0.0 | 0.0 | 0.00 | 0.41 | 0.41 | 95 | 1010.7 |
| 20260510012539 | 10 | 111 | 0.0 | 0.0 | 0.00 | 0.41 | 0.41 | 95 | 1010.7 |
| 20260510012440 | 10 | 111 | 0.0 | 0.0 | 0.00 | 0.41 | 0.41 | 95 | 1010.7 |
| 20260510012340 | 10 | 111 | 0.0 | 0.0 | 0.00 | 0.41 | 0.41 | 95 | 1010.7 |
| 20260510012238 | 10 | 111 | 0.0 | 0.0 | 0.00 | 0.41 | 0.41 | 95 | 1010.7 |
| 20260510012139 | 10 | 111 | 0.0 | 0.0 | 0.00 | 0.41 | 0.41 | 96 | 1010.7 |
| 20260510012036 | 10 | 111 | 0.0 | 0.0 | 0.00 | 0.41 | 0.41 | 96 | 1010.7 |
| 20260510011935 | 10 | 111 | 0.0 | 0.0 | 0.00 | 0.41 | 0.41 | 96 | 1010.7 |
| 20260510011834 | 10 | 111 | 0.0 | 0.0 | 0.00 | 0.41 | 0.41 | 96 | 1010.7 |
| 20260510011733 | 10 | 111 | 0.0 | 0.0 | 0.00 | 0.41 | 0.41 | 96 | 1010.7 |
| 20260510011646 | 10 | 111 | 0.0 | 0.0 | 0.00 | 0.41 | 0.41 | 96 | 1010.7 |
| 20260510011500 | 10 | 111 | 0.0 | 0.0 | 0.00 | 0.41 | 0.41 | 95 | 1010.6 |
| 20260510011129 | 10 | 111 | 0.0 | 0.0 | 0.00 | 0.41 | 0.41 | 95 | 1010.5 |
| 20260510011028 | 10 | 111 | 0.0 | 0.0 | 0.00 | 0.41 | 0.41 | 95 | 1010.5 |
| 20260510010927 | 10 | 111 | 0.0 | 0.0 | 0.00 | 0.41 | 0.41 | 95 | 1010.5 |
| 20260510010828 | 10 | 111 | 0.0 | 0.0 | 0.00 | 0.41 | 0.41 | 95 | 1010.5 |
| 20260510010724 | 10 | 111 | 0.0 | 0.0 | 0.00 | 0.41 | 0.41 | 95 | 1010.5 |
| 20260510010626 | 10 | 111 | 0.0 | 0.0 | 0.00 | 0.41 | 0.41 | 95 | 1010.5 |
| 20260510010539 | 10 | 111 | 0.0 | 0.0 | 0.00 | 0.41 | 0.41 | 95 | 1010.5 |
| 20260510010324 | 10 | 111 | 0.0 | 0.0 | 0.00 | 0.41 | 0.41 | 95 | 1010.5 |
| 20260510010222 | 11 | 111 | 0.0 | 0.0 | 0.00 | 0.41 | 0.41 | 95 | 1010.4 |
| 20260510010120 | 11 | 111 | 0.0 | 0.0 | 0.00 | 0.41 | 0.41 | 95 | 1010.5 |
| 20260510010018 | 11 | 111 | 0.0 | 0.0 | 0.00 | 0.41 | 0.41 | 95 | 1010.4 |
| 20260510005920 | 11 | 111 | 0.0 | 0.0 | 0.00 | 0.41 | 0.41 | 95 | 1010.5 |
| 20260510005818 | 11 | 111 | 0.0 | 0.0 | 0.00 | 0.41 | 0.41 | 95 | 1010.4 |
| 20260510005734 | 11 | 111 | 0.0 | 0.0 | 0.00 | 0.41 | 0.41 | 95 | 1010.3 |
| 20260510005516 | 11 | 111 | 0.0 | 0.0 | 0.00 | 0.41 | 0.41 | 95 | 1010.3 |
| 20260510005444 | 11 | 111 | 0.0 | 0.0 | 0.00 | 0.41 | 0.41 | 95 | 1010.3 |
| 20260510005114 | 11 | 111 | 0.0 | 0.0 | 0.00 | 0.41 | 0.41 | 95 | 1010.3 |
| 20260510005012 | 11 | 111 | 0.0 | 0.0 | 0.00 | 0.41 | 0.41 | 95 | 1010.2 |
| 20260510004911 | 11 | 111 | 0.0 | 0.0 | 0.00 | 0.41 | 0.41 | 95 | 1010.1 |
| 20260510004811 | 11 | 111 | 0.0 | 0.0 | 0.00 | 0.41 | 0.41 | 95 | 1010.1 |
| 20260510004709 | 11 | 111 | 0.0 | 0.0 | 0.00 | 0.41 | 0.41 | 95 | 1010.1 |
| 20260510004609 | 11 | 111 | 0.0 | 0.0 | 0.00 | 0.41 | 0.41 | 95 | 1010.1 |
| 20260510004521 | 11 | 111 | 0.0 | 0.0 | 0.00 | 0.41 | 0.41 | 95 | 1010.1 |
| 20260510004307 | 11 | 111 | 0.0 | 0.0 | 0.00 | 0.41 | 0.41 | 95 | 1010.0 |
| 20260510004205 | 11 | 111 | 0.0 | 0.0 | 0.00 | 0.41 | 0.41 | 95 | 1010.0 |
| 20260510004106 | 11 | 111 | 0.0 | 0.0 | 0.00 | 0.41 | 0.41 | 95 | 1010.1 |
| 20260510004002 | 11 | 111 | 0.0 | 0.0 | 0.00 | 0.41 | 0.41 | 95 | 1010.1 |
| 20260510003903 | 11 | 111 | 0.0 | 0.0 | 0.00 | 0.41 | 0.41 | 95 | 1010.0 |
| 20260510003801 | 11 | 111 | 0.0 | 0.0 | 0.00 | 0.41 | 0.41 | 95 | 1010.0 |
| 20260510003701 | 11 | 111 | 0.0 | 0.0 | 0.00 | 0.41 | 0.41 | 95 | 1010.0 |
| 20260510003600 | 11 | 111 | 0.0 | 0.0 | 0.00 | 0.41 | 0.41 | 95 | 1010.0 |
| 20260510003502 | 11 | 111 | 0.0 | 0.0 | 0.00 | 0.41 | 0.41 | 95 | 1010.0 |
| 20260510003401 | 11 | 111 | 0.0 | 0.0 | 0.00 | 0.41 | 0.41 | 95 | 1010.0 |
| 20260510003302 | 11 | 111 | 0.0 | 0.0 | 0.00 | 0.41 | 0.41 | 95 | 1010.0 |
| 20260510003200 | 11 | 111 | 0.0 | 0.0 | 0.00 | 0.41 | 0.41 | 95 | 1010.0 |
| 20260510003103 | 11 | 111 | 0.0 | 0.0 | 0.00 | 0.41 | 0.41 | 95 | 1010.0 |
| 20260510002959 | 11 | 111 | 0.0 | 0.0 | 0.00 | 0.41 | 0.41 | 95 | 1009.9 |
| 20260510002859 | 11 | 111 | 0.0 | 0.0 | 0.00 | 0.41 | 0.41 | 95 | 1009.9 |
| 20260510002758 | 11 | 111 | 0.0 | 0.0 | 0.00 | 0.41 | 0.41 | 95 | 1009.9 |
| 20260510002656 | 11 | 111 | 0.0 | 0.0 | 0.00 | 0.41 | 0.41 | 95 | 1009.9 |
| 20260510002557 | 11 | 111 | 0.0 | 0.0 | 0.00 | 0.41 | 0.41 | 95 | 1009.9 |
| 20260510002455 | 11 | 111 | 0.0 | 0.0 | 0.00 | 0.41 | 0.41 | 95 | 1009.9 |
| 20260510002409 | 11 | 111 | 0.0 | 0.0 | 0.00 | 0.41 | 0.41 | 95 | 1009.9 |
| 20260510002154 | 11 | 111 | 0.0 | 0.0 | 0.00 | 0.41 | 0.41 | 95 | 1009.9 |
| 20260510002052 | 11 | 111 | 0.0 | 0.0 | 0.00 | 0.41 | 0.41 | 95 | 1009.9 |
| 20260510001951 | 11 | 111 | 0.0 | 0.0 | 0.00 | 0.41 | 0.41 | 95 | 1009.9 |
| 20260510001850 | 11 | 111 | 0.0 | 0.0 | 0.00 | 0.41 | 0.41 | 95 | 1009.9 |
| 20260510001749 | 11 | 111 | 0.0 | 0.0 | 0.00 | 0.41 | 0.41 | 95 | 1010.0 |
| 20260510001649 | 11 | 111 | 0.0 | 0.0 | 0.00 | 0.41 | 0.41 | 95 | 1010.0 |
| 20260510001602 | 11 | 111 | 0.0 | 0.0 | 0.00 | 0.41 | 0.41 | 95 | 1009.9 |
| 20260510001404 | 11 | 111 | 0.0 | 0.0 | 0.00 | 0.41 | 0.41 | 95 | 1010.0 |
| 20260510001145 | 12 | 111 | 0.0 | 0.0 | 0.00 | 0.41 | 0.41 | 95 | 1010.1 |
| 20260510001045 | 12 | 111 | 0.0 | 0.0 | 0.00 | 0.41 | 0.41 | 95 | 1010.1 |
| 20260510000944 | 12 | 111 | 0.0 | 0.0 | 0.00 | 0.41 | 0.41 | 95 | 1010.1 |
| 20260510000842 | 12 | 111 | 0.0 | 0.0 | 0.00 | 0.41 | 0.41 | 95 | 1010.1 |
| 20260510000742 | 12 | 111 | 0.0 | 0.0 | 0.00 | 0.41 | 0.41 | 95 | 1010.1 |
| 20260510000640 | 12 | 111 | 0.0 | 0.0 | 0.00 | 0.41 | 0.41 | 95 | 1010.1 |
| 20260510000539 | 12 | 111 | 0.0 | 0.0 | 0.00 | 0.41 | 0.41 | 95 | 1010.1 |
| 20260510000440 | 12 | 111 | 0.0 | 0.0 | 0.00 | 0.41 | 0.41 | 95 | 1010.1 |
| 20260510000341 | 12 | 111 | 0.0 | 0.0 | 0.00 | 0.41 | 0.41 | 95 | 1010.1 |
| 20260510000236 | 12 | 111 | 0.0 | 0.0 | 0.00 | 0.41 | 0.41 | 95 | 1010.1 |
| 20260510000137 | 12 | 111 | 0.0 | 0.0 | 0.00 | 0.41 | 0.41 | 95 | 1010.1 |
| 20260510000038 | 12 | 111 | 0.0 | 0.0 | 0.00 | 0.41 | 0.41 | 95 | 1010.1 |
| 20260509235935 | 12 | 111 | 0.0 | 0.0 | 0.00 | 0.41 | 0.41 | 95 | 1010.1 |
| 20260509235837 | 12 | 111 | 0.0 | 0.0 | 0.00 | 0.41 | 0.41 | 95 | 1010.1 |
| 20260509235803 | 12 | 111 | 0.0 | 0.0 | 0.00 | 0.41 | 0.41 | 95 | 1010.1 |
| 20260509235448 | 12 | 111 | 0.0 | 0.0 | 0.00 | 0.41 | 0.41 | 95 | 1010.2 |
| 20260509235230 | 12 | 111 | 0.0 | 0.0 | 0.00 | 0.41 | 0.41 | 95 | 1010.2 |
| 20260509235145 | 12 | 111 | 0.0 | 0.0 | 0.00 | 0.41 | 0.41 | 95 | 1010.1 |
| 20260509234926 | 12 | 111 | 0.0 | 0.0 | 0.00 | 0.41 | 0.41 | 95 | 1010.1 |
| 20260509234828 | 12 | 111 | 0.0 | 0.0 | 0.00 | 0.41 | 0.41 | 95 | 1010.1 |
| 20260509234725 | 12 | 111 | 0.0 | 0.0 | 0.00 | 0.41 | 0.41 | 95 | 1010.0 |
| 20260509234624 | 12 | 111 | 0.0 | 0.0 | 0.00 | 0.41 | 0.41 | 95 | 1010.0 |
| 20260509234526 | 12 | 111 | 0.0 | 0.0 | 0.00 | 0.41 | 0.41 | 95 | 1009.9 |
| 20260509234425 | 12 | 111 | 0.0 | 0.0 | 0.00 | 0.41 | 0.41 | 95 | 1010.0 |
| 20260509234336 | 12 | 111 | 0.0 | 0.0 | 0.00 | 0.41 | 0.41 | 95 | 1009.9 |
| 20260509234122 | 12 | 111 | 0.0 | 0.0 | 0.00 | 0.41 | 0.41 | 96 | 1009.9 |
| 20260509234020 | 12 | 111 | 0.0 | 0.0 | 0.00 | 0.41 | 0.41 | 95 | 1009.9 |
| 20260509233921 | 12 | 111 | 0.0 | 0.0 | 0.00 | 0.41 | 0.41 | 95 | 1009.9 |
| 20260509233818 | 12 | 111 | 0.0 | 1.6 | 0.00 | 0.41 | 0.41 | 96 | 1009.9 |
| 20260509233719 | 12 | 111 | 0.0 | 1.6 | 0.00 | 0.41 | 0.41 | 96 | 1009.9 |
| 20260509233616 | 12 | 111 | 0.0 | 3.2 | 0.00 | 0.41 | 0.41 | 96 | 1009.9 |
| 20260509233518 | 12 | 111 | 0.0 | 3.2 | 0.00 | 0.41 | 0.41 | 96 | 1009.9 |
| 20260509233414 | 12 | 111 | 0.0 | 3.2 | 0.00 | 0.41 | 0.41 | 96 | 1009.9 |
| 20260509233315 | 12 | 111 | 0.0 | 3.2 | 0.00 | 0.41 | 0.41 | 96 | 1009.9 |
| 20260509233214 | 12 | 111 | 0.0 | 3.2 | 0.00 | 0.41 | 0.41 | 96 | 1009.9 |
| 20260509233113 | 12 | 111 | 0.0 | 3.2 | 0.00 | 0.41 | 0.41 | 96 | 1009.8 |
| 20260509233012 | 12 | 111 | 0.0 | 3.2 | 0.00 | 0.41 | 0.41 | 96 | 1009.9 |
| 20260509232912 | 12 | 111 | 0.0 | 3.2 | 0.00 | 0.41 | 0.41 | 96 | 1009.8 |
| 20260509232811 | 12 | 111 | 0.0 | 3.2 | 0.00 | 0.41 | 0.41 | 96 | 1009.9 |
| 20260509232724 | 12 | 111 | 1.6 | 3.2 | 0.00 | 0.41 | 0.41 | 96 | 1009.9 |
| 20260509232510 | 12 | 111 | 0.0 | 3.2 | 0.00 | 0.41 | 0.41 | 96 | 1009.8 |
| 20260509232408 | 12 | 111 | 1.6 | 4.8 | 0.00 | 0.41 | 0.41 | 96 | 1009.8 |
| 20260509232306 | 12 | 111 | 1.6 | 4.8 | 0.00 | 0.41 | 0.41 | 96 | 1009.8 |
| 20260509232220 | 12 | 111 | 1.6 | 4.8 | 0.00 | 0.41 | 0.41 | 96 | 1009.7 |
| 20260509232005 | 12 | 111 | 1.6 | 4.8 | 0.00 | 0.41 | 0.41 | 96 | 1009.7 |
| 20260509231917 | 12 | 111 | 1.6 | 4.8 | 0.00 | 0.41 | 0.41 | 96 | 1009.7 |
| 20260509231701 | 12 | 111 | 1.6 | 4.8 | 0.00 | 0.41 | 0.41 | 96 | 1009.7 |
| 20260509231635 | 12 | 111 | 1.6 | 4.8 | 0.00 | 0.41 | 0.41 | 96 | 1009.7 |
| 20260509231301 | 12 | 111 | 0.0 | 4.8 | 0.00 | 0.41 | 0.41 | 96 | 1009.7 |
| 20260509231214 | 12 | 112 | 0.0 | 4.8 | 0.00 | 0.41 | 0.41 | 96 | 1009.7 |
| 20260509230959 | 12 | 112 | 0.0 | 4.8 | 0.00 | 0.41 | 0.41 | 96 | 1009.8 |
| 20260509230859 | 12 | 109 | 0.0 | 4.8 | 0.00 | 0.41 | 0.41 | 96 | 1009.8 |
| 20260509230756 | 12 | 109 | 0.0 | 4.8 | 0.00 | 0.41 | 0.41 | 96 | 1009.8 |
| 20260509230657 | 12 | 109 | 0.0 | 4.8 | 0.00 | 0.41 | 0.41 | 96 | 1009.8 |
| 20260509230556 | 12 | 109 | 0.0 | 6.4 | 0.00 | 0.41 | 0.41 | 96 | 1009.8 |
| 20260509230455 | 12 | 109 | 0.0 | 6.4 | 0.00 | 0.41 | 0.41 | 96 | 1009.8 |
| 20260509230356 | 12 | 109 | 1.6 | 6.4 | 0.00 | 0.41 | 0.41 | 96 | 1009.8 |
| 20260509230253 | 12 | 109 | 1.6 | 6.4 | 0.00 | 0.41 | 0.41 | 96 | 1009.8 |
| 20260509230207 | 12 | 109 | 1.6 | 6.4 | 0.00 | 0.41 | 0.41 | 96 | 1009.8 |
| 20260509225950 | 12 | 109 | 1.6 | 6.4 | 0.00 | 0.41 | 0.41 | 96 | 1009.8 |
| 20260509225851 | 12 | 109 | 1.6 | 6.4 | 0.00 | 0.41 | 0.41 | 96 | 1009.8 |
| 20260509225804 | 12 | 109 | 1.6 | 6.4 | 0.00 | 0.41 | 0.41 | 96 | 1009.9 |
| 20260509225546 | 12 | 109 | 1.6 | 6.4 | 0.00 | 0.41 | 0.41 | 96 | 1009.8 |
| 20260509225519 | 12 | 109 | 1.6 | 6.4 | 0.00 | 0.41 | 0.41 | 96 | 1009.8 |
| 20260509225148 | 12 | 109 | 1.6 | 6.4 | 0.00 | 0.41 | 0.41 | 96 | 1009.8 |
| 20260509225048 | 12 | 109 | 1.6 | 6.4 | 0.00 | 0.41 | 0.41 | 96 | 1009.8 |
| 20260509224946 | 12 | 109 | 1.6 | 6.4 | 0.00 | 0.41 | 0.41 | 96 | 1009.8 |
| 20260509224846 | 12 | 117 | 3.2 | 6.4 | 0.00 | 0.41 | 0.41 | 96 | 1009.8 |
| 20260509224746 | 12 | 117 | 3.2 | 6.4 | 0.00 | 0.41 | 0.41 | 96 | 1009.8 |
| 20260509224644 | 12 | 116 | 3.2 | 6.4 | 0.00 | 0.41 | 0.41 | 96 | 1009.8 |
| 20260509224542 | 12 | 121 | 3.2 | 6.4 | 0.00 | 0.41 | 0.41 | 96 | 1009.8 |
| 20260509224444 | 12 | 122 | 1.6 | 6.4 | 0.00 | 0.41 | 0.41 | 96 | 1009.8 |
| 20260509224342 | 12 | 122 | 3.2 | 6.4 | 0.00 | 0.41 | 0.41 | 96 | 1009.8 |
| 20260509224240 | 12 | 122 | 3.2 | 6.4 | 0.00 | 0.41 | 0.41 | 96 | 1009.8 |
| 20260509224140 | 12 | 122 | 3.2 | 6.4 | 0.00 | 0.41 | 0.41 | 96 | 1009.8 |
| 20260509224038 | 12 | 122 | 3.2 | 6.4 | 0.00 | 0.41 | 0.41 | 96 | 1009.8 |
| 20260509223938 | 12 | 128 | 3.2 | 6.4 | 0.00 | 0.41 | 0.41 | 95 | 1009.8 |
| 20260509223839 | 12 | 111 | 3.2 | 6.4 | 0.00 | 0.41 | 0.41 | 95 | 1009.9 |
| 20260509223737 | 12 | 111 | 3.2 | 6.4 | 0.00 | 0.41 | 0.41 | 95 | 1009.9 |
| 20260509223638 | 12 | 111 | 3.2 | 6.4 | 0.00 | 0.41 | 0.41 | 95 | 1009.9 |
| 20260509223535 | 12 | 115 | 3.2 | 6.4 | 0.00 | 0.41 | 0.41 | 95 | 1009.9 |
| 20260509223434 | 12 | 115 | 3.2 | 6.4 | 0.00 | 0.41 | 0.41 | 95 | 1009.9 |
| 20260509223334 | 12 | 115 | 1.6 | 6.4 | 0.00 | 0.41 | 0.41 | 95 | 1009.9 |
| 20260509223232 | 12 | 130 | 1.6 | 6.4 | 0.00 | 0.41 | 0.41 | 95 | 1010.0 |
| 20260509223133 | 12 | 130 | 1.6 | 6.4 | 0.00 | 0.41 | 0.41 | 96 | 1010.0 |
| 20260509223031 | 12 | 117 | 1.6 | 4.8 | 0.00 | 0.41 | 0.41 | 95 | 1010.0 |
| 20260509222932 | 12 | 117 | 1.6 | 4.8 | 0.00 | 0.41 | 0.41 | 95 | 1010.1 |
| 20260509222831 | 12 | 117 | 0.0 | 4.8 | 0.00 | 0.41 | 0.41 | 95 | 1010.1 |
| 20260509222732 | 12 | 117 | 0.0 | 4.8 | 0.00 | 0.41 | 0.41 | 96 | 1010.2 |
| 20260509222646 | 12 | 118 | 0.0 | 4.8 | 0.00 | 0.41 | 0.41 | 96 | 1010.2 |
| 20260509222432 | 12 | 111 | 0.0 | 0.0 | 0.00 | 0.41 | 0.41 | 96 | 1010.2 |
| 20260509222328 | 12 | 111 | 0.0 | 0.0 | 0.00 | 0.41 | 0.41 | 96 | 1010.2 |
| 20260509222230 | 12 | 111 | 0.0 | 0.0 | 0.00 | 0.41 | 0.41 | 96 | 1010.2 |
| 20260509222129 | 12 | 111 | 0.0 | 0.0 | 0.00 | 0.41 | 0.41 | 96 | 1010.2 |
| 20260509222027 | 12 | 111 | 0.0 | 0.0 | 0.00 | 0.41 | 0.41 | 96 | 1010.2 |
| 20260509221954 | 12 | 111 | 0.0 | 0.0 | 0.00 | 0.41 | 0.41 | 96 | 1010.2 |
| 20260509221637 | 12 | 111 | 0.0 | 0.0 | 0.03 | 0.41 | 0.41 | 96 | 1010.2 |
| 20260509221424 | 12 | 111 | 0.0 | 0.0 | 0.03 | 0.41 | 0.41 | 96 | 1010.1 |
| 20260509221320 | 12 | 111 | 0.0 | 0.0 | 0.03 | 0.41 | 0.41 | 96 | 1010.1 |
| 20260509221221 | 12 | 111 | 0.0 | 1.6 | 0.03 | 0.41 | 0.41 | 96 | 1010.1 |
| 20260509221120 | 12 | 111 | 0.0 | 3.2 | 0.03 | 0.41 | 0.41 | 96 | 1010.1 |
| 20260509221019 | 12 | 111 | 0.0 | 4.8 | 0.03 | 0.41 | 0.41 | 96 | 1010.1 |
| 20260509220918 | 12 | 111 | 0.0 | 4.8 | 0.05 | 0.41 | 0.41 | 96 | 1010.1 |
| 20260509220818 | 12 | 111 | 1.6 | 4.8 | 0.05 | 0.41 | 0.41 | 96 | 1010.1 |
| 20260509220732 | 12 | 111 | 1.6 | 4.8 | 0.05 | 0.41 | 0.41 | 96 | 1010.1 |
| 20260509220517 | 12 | 111 | 1.6 | 4.8 | 0.05 | 0.41 | 0.41 | 96 | 1010.1 |
| 20260509220416 | 12 | 111 | 1.6 | 4.8 | 0.05 | 0.41 | 0.41 | 96 | 1010.1 |
| 20260509220313 | 12 | 111 | 1.6 | 4.8 | 0.05 | 0.41 | 0.41 | 96 | 1010.1 |
| 20260509220228 | 12 | 111 | 1.6 | 4.8 | 0.08 | 0.41 | 0.41 | 96 | 1010.1 |
| 20260509220011 | 12 | 111 | 1.6 | 4.8 | 0.08 | 0.41 | 0.41 | 96 | 1010.2 |
| 20260509215912 | 12 | 111 | 1.6 | 4.8 | 0.08 | 0.41 | 0.41 | 96 | 1010.1 |
| 20260509215809 | 12 | 111 | 0.0 | 4.8 | 0.08 | 0.41 | 0.41 | 96 | 1010.1 |
| 20260509215710 | 12 | 111 | 0.0 | 3.2 | 0.08 | 0.41 | 0.41 | 96 | 1010.1 |
| 20260509215609 | 12 | 111 | 0.0 | 3.2 | 0.08 | 0.41 | 0.41 | 96 | 1010.1 |
| 20260509215525 | 12 | 111 | 1.6 | 6.4 | 0.08 | 0.41 | 0.41 | 96 | 1010.1 |
| 20260509215309 | 12 | 111 | 1.6 | 6.4 | 0.08 | 0.41 | 0.41 | 96 | 1010.0 |
| 20260509215208 | 12 | 111 | 1.6 | 6.4 | 0.08 | 0.41 | 0.41 | 96 | 1010.1 |
| 20260509215109 | 12 | 111 | 1.6 | 6.4 | 0.08 | 0.41 | 0.41 | 96 | 1010.1 |
| 20260509215035 | 12 | 111 | 3.2 | 6.4 | 0.08 | 0.41 | 0.41 | 96 | 1010.1 |
| 20260509214719 | 12 | 111 | 3.2 | 6.4 | 0.10 | 0.41 | 0.41 | 96 | 1010.1 |
| 20260509214504 | 12 | 108 | 3.2 | 6.4 | 0.10 | 0.41 | 0.41 | 95 | 1010.1 |
| 20260509214402 | 12 | 111 | 3.2 | 6.4 | 0.10 | 0.41 | 0.41 | 95 | 1010.1 |
| 20260509214303 | 12 | 107 | 3.2 | 6.4 | 0.10 | 0.41 | 0.41 | 95 | 1010.1 |
| 20260509214205 | 12 | 106 | 1.6 | 6.4 | 0.10 | 0.41 | 0.41 | 95 | 1010.1 |
| 20260509214103 | 12 | 102 | 1.6 | 6.4 | 0.10 | 0.41 | 0.41 | 95 | 1010.1 |
| 20260509214002 | 12 | 102 | 1.6 | 6.4 | 0.10 | 0.41 | 0.41 | 95 | 1010.2 |
| 20260509213903 | 12 | 103 | 1.6 | 6.4 | 0.10 | 0.41 | 0.41 | 95 | 1010.1 |
| 20260509213819 | 12 | 103 | 1.6 | 6.4 | 0.10 | 0.41 | 0.41 | 95 | 1010.2 |
| 20260509213605 | 12 | 179 | 1.6 | 4.8 | 0.10 | 0.41 | 0.41 | 95 | 1010.3 |
| 20260509213504 | 12 | 188 | 1.6 | 4.8 | 0.13 | 0.41 | 0.41 | 95 | 1010.4 |
| 20260509213403 | 12 | 188 | 1.6 | 4.8 | 0.13 | 0.41 | 0.41 | 95 | 1010.4 |
| 20260509213301 | 12 | 188 | 1.6 | 4.8 | 0.13 | 0.41 | 0.41 | 95 | 1010.4 |
| 20260509213201 | 12 | 208 | 1.6 | 4.8 | 0.13 | 0.41 | 0.41 | 95 | 1010.3 |
| 20260509213114 | 12 | 208 | 1.6 | 4.8 | 0.13 | 0.41 | 0.41 | 95 | 1010.3 |
| 20260509212927 | 12 | 208 | 1.6 | 4.8 | 0.15 | 0.41 | 0.41 | 95 | 1010.3 |
| 20260509212557 | 12 | 208 | 1.6 | 4.8 | 0.15 | 0.41 | 0.41 | 95 | 1010.1 |
| 20260509212457 | 12 | 242 | 1.6 | 4.8 | 0.15 | 0.41 | 0.41 | 95 | 1010.1 |
| 20260509212413 | 12 | 242 | 0.0 | 4.8 | 0.15 | 0.41 | 0.41 | 95 | 1010.1 |
| 20260509212157 | 12 | 244 | 0.0 | 4.8 | 0.15 | 0.41 | 0.41 | 95 | 1010.1 |
| 20260509212111 | 12 | 248 | 0.0 | 0.0 | 0.15 | 0.41 | 0.41 | 95 | 1010.2 |
| 20260509211908 | 12 | 248 | 0.0 | 0.0 | 0.15 | 0.41 | 0.41 | 95 | 1010.2 |
| 20260509211654 | 12 | 248 | 0.0 | 0.0 | 0.15 | 0.41 | 0.41 | 95 | 1010.1 |
| 20260509211552 | 12 | 248 | 0.0 | 0.0 | 0.13 | 0.38 | 0.41 | 95 | 1010.2 |
| 20260509211448 | 12 | 248 | 0.0 | 3.2 | 0.13 | 0.38 | 0.38 | 95 | 1010.1 |
| 20260509211349 | 12 | 248 | 0.0 | 3.2 | 0.13 | 0.38 | 0.38 | 95 | 1010.0 |
| 20260509211305 | 12 | 248 | 0.0 | 3.2 | 0.13 | 0.38 | 0.38 | 95 | 1010.1 |
| 20260509211048 | 12 | 248 | 1.6 | 3.2 | 0.13 | 0.38 | 0.38 | 95 | 1010.2 |
| 20260509211017 | 12 | 248 | 1.6 | 3.2 | 0.13 | 0.36 | 0.36 | 95 | 1010.2 |
| 20260509210713 | 12 | 248 | 1.6 | 3.2 | 0.13 | 0.36 | 0.36 | 95 | 1010.1 |
| 20260509210341 | 12 | 248 | 1.6 | 3.2 | 0.13 | 0.36 | 0.36 | 95 | 1010.0 |
| 20260509210241 | 12 | 248 | 1.6 | 3.2 | 0.10 | 0.33 | 0.33 | 95 | 1010.0 |
| 20260509210142 | 12 | 248 | 1.6 | 3.2 | 0.10 | 0.33 | 0.33 | 95 | 1009.9 |
| 20260509210039 | 12 | 248 | 1.6 | 3.2 | 0.10 | 0.33 | 0.33 | 95 | 1009.9 |
| 20260509205939 | 12 | 248 | 1.6 | 3.2 | 0.10 | 0.33 | 0.33 | 95 | 1010.1 |
| 20260509205837 | 12 | 248 | 1.6 | 3.2 | 0.10 | 0.33 | 0.33 | 95 | 1010.1 |
| 20260509205737 | 12 | 248 | 0.0 | 3.2 | 0.10 | 0.33 | 0.33 | 95 | 1010.1 |
| 20260509205636 | 12 | 248 | 0.0 | 3.2 | 0.10 | 0.33 | 0.33 | 95 | 1010.1 |
| 20260509205534 | 12 | 248 | 0.0 | 3.2 | 0.10 | 0.33 | 0.33 | 95 | 1010.1 |
| 20260509205436 | 12 | 248 | 0.0 | 1.6 | 0.10 | 0.33 | 0.33 | 95 | 1010.2 |
| 20260509205333 | 12 | 248 | 0.0 | 0.0 | 0.10 | 0.33 | 0.33 | 95 | 1010.2 |
| 20260509205234 | 12 | 248 | 0.0 | 0.0 | 0.10 | 0.33 | 0.33 | 95 | 1010.3 |
| 20260509205131 | 12 | 248 | 0.0 | 0.0 | 0.13 | 0.33 | 0.33 | 95 | 1010.3 |
| 20260509205031 | 12 | 248 | 0.0 | 0.0 | 0.13 | 0.33 | 0.33 | 95 | 1010.3 |
| 20260509204931 | 12 | 248 | 0.0 | 0.0 | 0.13 | 0.33 | 0.33 | 95 | 1010.3 |
| 20260509204829 | 12 | 248 | 0.0 | 0.0 | 0.10 | 0.30 | 0.30 | 95 | 1010.2 |
| 20260509204729 | 12 | 248 | 0.0 | 0.0 | 0.10 | 0.30 | 0.30 | 94 | 1010.1 |
| 20260509204643 | 12 | 248 | 0.0 | 0.0 | 0.10 | 0.30 | 0.30 | 94 | 1010.1 |
| 20260509204427 | 12 | 248 | 0.0 | 0.0 | 0.10 | 0.30 | 0.30 | 94 | 1010.1 |
| 20260509204324 | 12 | 248 | 0.0 | 0.0 | 0.10 | 0.30 | 0.30 | 94 | 1010.1 |
| 20260509204225 | 12 | 248 | 0.0 | 0.0 | 0.10 | 0.30 | 0.30 | 94 | 1010.0 |
| 20260509204122 | 12 | 248 | 0.0 | 0.0 | 0.13 | 0.30 | 0.30 | 94 | 1010.0 |
| 20260509204023 | 12 | 248 | 0.0 | 0.0 | 0.13 | 0.30 | 0.30 | 94 | 1010.0 |
| 20260509203921 | 12 | 248 | 0.0 | 0.0 | 0.13 | 0.30 | 0.30 | 94 | 1009.9 |
| 20260509203821 | 12 | 248 | 0.0 | 0.0 | 0.13 | 0.30 | 0.30 | 94 | 1009.9 |
| 20260509203722 | 12 | 248 | 0.0 | 1.6 | 0.13 | 0.30 | 0.30 | 94 | 1009.9 |
| 20260509203621 | 12 | 248 | 0.0 | 1.6 | 0.13 | 0.30 | 0.30 | 94 | 1009.8 |
| 20260509203536 | 12 | 248 | 0.0 | 1.6 | 0.10 | 0.28 | 0.30 | 94 | 1009.8 |
| 20260509203317 | 12 | 248 | 0.0 | 1.6 | 0.13 | 0.28 | 0.28 | 94 | 1009.9 |
| 20260509203216 | 12 | 248 | 0.0 | 1.6 | 0.13 | 0.28 | 0.28 | 94 | 1010.0 |
| 20260509203116 | 12 | 248 | 0.0 | 3.2 | 0.13 | 0.28 | 0.28 | 94 | 1010.1 |
| 20260509203014 | 12 | 248 | 0.0 | 3.2 | 0.13 | 0.28 | 0.28 | 94 | 1010.1 |
| 20260509202929 | 12 | 248 | 0.0 | 3.2 | 0.15 | 0.28 | 0.28 | 94 | 1010.1 |
| 20260509202726 | 12 | 248 | 0.0 | 3.2 | 0.13 | 0.25 | 0.25 | 94 | 1010.1 |
| 20260509202511 | 12 | 248 | 0.0 | 4.8 | 0.13 | 0.25 | 0.25 | 94 | 1010.1 |
| 20260509202411 | 12 | 248 | 0.0 | 4.8 | 0.13 | 0.25 | 0.25 | 94 | 1010.1 |
| 20260509202308 | 12 | 248 | 1.6 | 4.8 | 0.13 | 0.25 | 0.25 | 94 | 1010.0 |
| 20260509202209 | 12 | 248 | 0.0 | 4.8 | 0.15 | 0.25 | 0.25 | 94 | 1010.0 |
| 20260509202106 | 12 | 248 | 1.6 | 4.8 | 0.15 | 0.25 | 0.25 | 94 | 1010.0 |
| 20260509202009 | 12 | 248 | 1.6 | 4.8 | 0.18 | 0.25 | 0.25 | 94 | 1010.1 |
| 20260509201904 | 12 | 248 | 1.6 | 4.8 | 0.18 | 0.25 | 0.25 | 94 | 1010.1 |
| 20260509201805 | 12 | 248 | 1.6 | 4.8 | 0.18 | 0.25 | 0.25 | 94 | 1010.1 |
| 20260509201705 | 12 | 248 | 0.0 | 4.8 | 0.18 | 0.25 | 0.25 | 94 | 1010.1 |
| 20260509201605 | 12 | 198 | 0.0 | 3.2 | 0.20 | 0.25 | 0.25 | 94 | 1010.2 |
| 20260509201505 | 12 | 198 | 0.0 | 3.2 | 0.20 | 0.25 | 0.25 | 94 | 1010.2 |
| 20260509201436 | 12 | 198 | 0.0 | 3.2 | 0.20 | 0.25 | 0.25 | 94 | 1010.2 |
| 20260509201105 | 12 | 196 | 0.0 | 3.2 | 0.20 | 0.25 | 0.25 | 94 | 1010.3 |
| 20260509201003 | 12 | 194 | 0.0 | 1.6 | 0.18 | 0.23 | 0.25 | 94 | 1010.2 |
| 20260509200900 | 12 | 194 | 0.0 | 1.6 | 0.18 | 0.23 | 0.23 | 94 | 1010.2 |
| 20260509200803 | 12 | 194 | 0.0 | 1.6 | 0.18 | 0.23 | 0.23 | 94 | 1010.2 |
| 20260509200702 | 12 | 194 | 0.0 | 1.6 | 0.18 | 0.23 | 0.23 | 94 | 1010.2 |
| 20260509200601 | 12 | 194 | 0.0 | 3.2 | 0.20 | 0.23 | 0.23 | 94 | 1010.2 |
| 20260509200457 | 12 | 194 | 0.0 | 3.2 | 0.20 | 0.23 | 0.23 | 94 | 1010.3 |
| 20260509200358 | 12 | 194 | 0.0 | 3.2 | 0.20 | 0.23 | 0.23 | 94 | 1010.3 |
| 20260509200257 | 12 | 194 | 0.0 | 3.2 | 0.20 | 0.23 | 0.23 | 94 | 1010.4 |
| 20260509200213 | 12 | 194 | 0.0 | 3.2 | 0.20 | 0.23 | 0.23 | 94 | 1010.5 |
| 20260509195946 | 12 | 194 | 0.0 | 3.2 | 0.20 | 0.23 | 0.23 | 94 | 1010.5 |
| 20260509195847 | 12 | 194 | 0.0 | 3.2 | 0.20 | 0.23 | 0.23 | 94 | 1010.4 |
| 20260509195747 | 12 | 194 | 0.0 | 3.2 | 0.20 | 0.23 | 0.23 | 94 | 1010.4 |
| 20260509195641 | 12 | 194 | 0.0 | 3.2 | 0.20 | 0.23 | 0.23 | 94 | 1010.5 |
| 20260509195543 | 12 | 182 | 0.0 | 1.6 | 0.20 | 0.23 | 0.23 | 94 | 1010.5 |
| 20260509195445 | 12 | 182 | 0.0 | 1.6 | 0.20 | 0.23 | 0.23 | 94 | 1010.6 |
| 20260509195343 | 12 | 182 | 0.0 | 0.0 | 0.20 | 0.23 | 0.23 | 94 | 1010.6 |
| 20260509195256 | 12 | 182 | 0.0 | 1.6 | 0.20 | 0.23 | 0.23 | 94 | 1010.6 |
| 20260509195039 | 12 | 182 | 0.0 | 4.8 | 0.18 | 0.20 | 0.20 | 93 | 1010.7 |
| 20260509194953 | 12 | 182 | 0.0 | 4.8 | 0.18 | 0.20 | 0.20 | 93 | 1010.7 |
| 20260509194738 | 12 | 182 | 0.0 | 4.8 | 0.18 | 0.20 | 0.20 | 93 | 1010.8 |
| 20260509194636 | 12 | 182 | 0.0 | 4.8 | 0.18 | 0.20 | 0.20 | 93 | 1010.8 |
| 20260509194536 | 12 | 182 | 0.0 | 4.8 | 0.18 | 0.20 | 0.20 | 93 | 1010.8 |
| 20260509194434 | 12 | 182 | 0.0 | 4.8 | 0.18 | 0.20 | 0.20 | 93 | 1010.8 |
| 20260509194335 | 12 | 182 | 0.0 | 4.8 | 0.18 | 0.20 | 0.20 | 93 | 1010.8 |
| 20260509194233 | 12 | 182 | 0.0 | 4.8 | 0.18 | 0.20 | 0.20 | 93 | 1010.8 |
| 20260509194132 | 12 | 177 | 0.0 | 4.8 | 0.15 | 0.18 | 0.18 | 93 | 1010.8 |
| 20260509194031 | 12 | 177 | 0.0 | 4.8 | 0.15 | 0.18 | 0.18 | 93 | 1010.8 |
| 20260509193931 | 12 | 177 | 0.0 | 4.8 | 0.15 | 0.18 | 0.18 | 93 | 1010.8 |
| 20260509193830 | 12 | 177 | 0.0 | 4.8 | 0.15 | 0.18 | 0.18 | 92 | 1010.8 |
| 20260509193729 | 12 | 177 | 0.0 | 4.8 | 0.15 | 0.18 | 0.18 | 93 | 1010.8 |
| 20260509193629 | 12 | 177 | 0.0 | 4.8 | 0.15 | 0.18 | 0.18 | 92 | 1010.8 |
| 20260509193528 | 12 | 177 | 0.0 | 4.8 | 0.15 | 0.18 | 0.18 | 92 | 1010.8 |
| 20260509193427 | 12 | 177 | 0.0 | 4.8 | 0.13 | 0.15 | 0.18 | 92 | 1010.8 |
| 20260509193326 | 12 | 177 | 0.0 | 4.8 | 0.13 | 0.15 | 0.15 | 92 | 1010.8 |
| 20260509193224 | 12 | 177 | 0.0 | 4.8 | 0.13 | 0.15 | 0.15 | 92 | 1010.8 |
| 20260509193124 | 12 | 252 | 0.0 | 3.2 | 0.13 | 0.15 | 0.15 | 92 | 1010.9 |
| 20260509193022 | 12 | 252 | 0.0 | 3.2 | 0.13 | 0.15 | 0.15 | 92 | 1010.9 |
| 20260509192923 | 12 | 252 | 0.0 | 3.2 | 0.10 | 0.13 | 0.15 | 92 | 1010.9 |
| 20260509192824 | 12 | 252 | 0.0 | 6.4 | 0.10 | 0.13 | 0.13 | 92 | 1010.9 |
| 20260509192721 | 12 | 252 | 0.0 | 6.4 | 0.10 | 0.13 | 0.13 | 91 | 1010.9 |
| 20260509192637 | 12 | 252 | 0.0 | 6.4 | 0.10 | 0.13 | 0.13 | 91 | 1010.9 |
| 20260509192505 | 12 | 252 | 0.0 | 6.4 | 0.10 | 0.13 | 0.13 | 91 | 1010.9 |
| 20260509192018 | 13 | 252 | 0.0 | 6.4 | 0.05 | 0.08 | 0.10 | 91 | 1010.8 |
| 20260509191917 | 13 | 252 | 0.0 | 6.4 | 0.05 | 0.08 | 0.08 | 91 | 1010.8 |
| 20260509191816 | 13 | 243 | 0.0 | 0.0 | 0.05 | 0.08 | 0.08 | 91 | 1010.9 |
| 20260509191716 | 13 | 243 | 0.0 | 0.0 | 0.05 | 0.08 | 0.08 | 91 | 1010.9 |
| 20260509191616 | 13 | 243 | 0.0 | 0.0 | 0.03 | 0.05 | 0.08 | 91 | 1010.9 |
| 20260509191515 | 13 | 243 | 0.0 | 0.0 | 0.03 | 0.05 | 0.05 | 91 | 1010.7 |
| 20260509191415 | 13 | 243 | 0.0 | 1.6 | 0.03 | 0.05 | 0.05 | 91 | 1010.6 |
| 20260509191329 | 13 | 243 | 0.0 | 1.6 | 0.03 | 0.05 | 0.05 | 90 | 1010.6 |
| 20260509191113 | 13 | 243 | 0.0 | 12.9 | 0.03 | 0.05 | 0.05 | 90 | 1010.7 |
| 20260509191011 | 13 | 243 | 0.0 | 12.9 | 0.03 | 0.05 | 0.05 | 90 | 1010.7 |
| 20260509190943 | 13 | 243 | 0.0 | 12.9 | 0.03 | 0.05 | 0.05 | 90 | 1010.7 |
| 20260509190608 | 13 | 243 | 0.0 | 12.9 | 0.03 | 0.03 | 0.05 | 89 | 1010.8 |
| 20260509190508 | 13 | 243 | 0.0 | 12.9 | 0.03 | 0.03 | 0.03 | 89 | 1010.8 |
| 20260509190419 | 13 | 243 | 0.0 | 12.9 | 0.03 | 0.03 | 0.03 | 89 | 1010.8 |
| 20260509190203 | 13 | 243 | 0.0 | 12.9 | 0.03 | 0.03 | 0.03 | 88 | 1010.8 |
| 20260509190105 | 13 | 263 | 0.0 | 4.8 | 0.03 | 0.03 | 0.03 | 89 | 1010.8 |
| 20260509190005 | 13 | 275 | 0.0 | 4.8 | 0.03 | 0.03 | 0.03 | 89 | 1010.8 |
| 20260509185905 | 13 | 275 | 0.0 | 4.8 | 0.03 | 0.03 | 0.03 | 89 | 1010.8 |
| 20260509185820 | 13 | 275 | 0.0 | 4.8 | 0.03 | 0.03 | 0.03 | 89 | 1010.7 |
| 20260509185604 | 13 | 278 | 0.0 | 4.8 | 0.03 | 0.03 | 0.03 | 88 | 1010.8 |
| 20260509185505 | 13 | 279 | 0.0 | 4.8 | 0.03 | 0.03 | 0.03 | 88 | 1010.7 |
| 20260509185404 | 13 | 284 | 0.0 | 4.8 | 0.03 | 0.03 | 0.03 | 89 | 1010.7 |
| 20260509185306 | 13 | 284 | 0.0 | 4.8 | 0.03 | 0.03 | 0.03 | 89 | 1010.7 |
| 20260509185205 | 13 | 284 | 0.0 | 4.8 | 0.03 | 0.03 | 0.03 | 89 | 1010.8 |
| 20260509185105 | 13 | 284 | 0.0 | 4.8 | 0.03 | 0.03 | 0.03 | 88 | 1010.8 |
| 20260509185005 | 13 | 284 | 0.0 | 4.8 | 0.03 | 0.03 | 0.03 | 88 | 1010.8 |
| 20260509184905 | 13 | 284 | 0.0 | 3.2 | 0.03 | 0.03 | 0.03 | 89 | 1010.8 |
| 20260509184803 | 13 | 284 | 0.0 | 1.6 | 0.03 | 0.03 | 0.03 | 89 | 1010.8 |
| 20260509184702 | 13 | 284 | 0.0 | 3.2 | 0.03 | 0.03 | 0.03 | 89 | 1010.8 |
| 20260509184601 | 13 | 284 | 0.0 | 3.2 | 0.03 | 0.03 | 0.03 | 89 | 1010.8 |
| 20260509184502 | 13 | 284 | 0.0 | 3.2 | 0.03 | 0.03 | 0.03 | 89 | 1010.8 |
| 20260509184414 | 13 | 284 | 0.0 | 3.2 | 0.03 | 0.03 | 0.03 | 89 | 1010.7 |
| 20260509184201 | 13 | 284 | 0.0 | 3.2 | 0.03 | 0.03 | 0.03 | 88 | 1010.6 |
| 20260509184059 | 13 | 284 | 0.0 | 3.2 | 0.03 | 0.03 | 0.03 | 88 | 1010.5 |
| 20260509184000 | 13 | 284 | 0.0 | 3.2 | 0.03 | 0.03 | 0.03 | 88 | 1010.5 |
| 20260509183859 | 13 | 284 | 0.0 | 3.2 | 0.03 | 0.03 | 0.03 | 88 | 1010.6 |
| 20260509183759 | 13 | 284 | 0.0 | 3.2 | 0.03 | 0.03 | 0.03 | 88 | 1010.6 |
| 20260509183658 | 13 | 284 | 0.0 | 4.8 | 0.03 | 0.03 | 0.03 | 88 | 1010.5 |
| 20260509183559 | 13 | 284 | 0.0 | 6.4 | 0.03 | 0.03 | 0.03 | 88 | 1010.5 |
| 20260509183500 | 13 | 284 | 0.0 | 6.4 | 0.03 | 0.03 | 0.03 | 88 | 1010.6 |
| 20260509183400 | 13 | 284 | 0.0 | 6.4 | 0.03 | 0.03 | 0.03 | 88 | 1010.5 |
| 20260509183300 | 13 | 284 | 0.0 | 6.4 | 0.03 | 0.03 | 0.03 | 88 | 1010.5 |
| 20260509183159 | 13 | 284 | 0.0 | 6.4 | 0.03 | 0.03 | 0.03 | 87 | 1010.7 |
| 20260509183059 | 13 | 284 | 1.6 | 6.4 | 0.03 | 0.03 | 0.03 | 87 | 1010.6 |
| 20260509182959 | 13 | 284 | 1.6 | 6.4 | 0.03 | 0.03 | 0.03 | 86 | 1010.6 |
| 20260509182858 | 13 | 284 | 1.6 | 6.4 | 0.03 | 0.03 | 0.03 | 86 | 1010.5 |
| 20260509182757 | 13 | 284 | 1.6 | 6.4 | 0.03 | 0.03 | 0.03 | 86 | 1010.5 |
| 20260509182658 | 13 | 265 | 1.6 | 6.4 | 0.03 | 0.03 | 0.03 | 87 | 1010.4 |
| 20260509182559 | 13 | 286 | 1.6 | 4.8 | 0.03 | 0.03 | 0.03 | 87 | 1010.3 |
| 20260509182458 | 13 | 286 | 0.0 | 4.8 | 0.03 | 0.03 | 0.03 | 87 | 1010.4 |
| 20260509182412 | 13 | 286 | 1.6 | 4.8 | 0.03 | 0.03 | 0.03 | 87 | 1010.3 |
| 20260509182157 | 13 | 286 | 1.6 | 4.8 | 0.03 | 0.03 | 0.03 | 86 | 1010.3 |
| 20260509182113 | 13 | 286 | 1.6 | 6.4 | 0.03 | 0.03 | 0.03 | 86 | 1010.4 |
| 20260509181913 | 13 | 242 | 1.6 | 12.9 | 0.03 | 0.03 | 0.03 | 86 | 1010.7 |
| 20260509181656 | 13 | 240 | 1.6 | 12.9 | 0.03 | 0.03 | 0.03 | 86 | 1010.9 |
| 20260509181557 | 13 | 240 | 1.6 | 12.9 | 0.03 | 0.03 | 0.03 | 85 | 1011.0 |
| 20260509181456 | 13 | 240 | 1.6 | 12.9 | 0.03 | 0.03 | 0.03 | 85 | 1011.0 |
| 20260509181357 | 13 | 240 | 1.6 | 12.9 | 0.03 | 0.03 | 0.03 | 84 | 1011.1 |
| 20260509181256 | 14 | 239 | 3.2 | 12.9 | 0.03 | 0.03 | 0.03 | 84 | 1011.1 |
| 20260509181156 | 14 | 239 | 1.6 | 12.9 | 0.03 | 0.03 | 0.03 | 84 | 1011.1 |
| 20260509181056 | 14 | 246 | 1.6 | 12.9 | 0.03 | 0.03 | 0.03 | 83 | 1011.0 |
| 20260509180956 | 14 | 311 | 1.6 | 12.9 | 0.03 | 0.03 | 0.03 | 84 | 1011.0 |
| 20260509180856 | 14 | 313 | 1.6 | 9.7 | 0.03 | 0.03 | 0.03 | 84 | 1011.1 |
| 20260509180756 | 14 | 261 | 1.6 | 9.7 | 0.03 | 0.03 | 0.03 | 83 | 1011.1 |
| 20260509180658 | 14 | 261 | 1.6 | 9.7 | 0.03 | 0.03 | 0.03 | 83 | 1011.1 |
| 20260509180556 | 14 | 261 | 1.6 | 9.7 | 0.00 | 0.00 | 0.03 | 82 | 1011.1 |
| 20260509180456 | 14 | 269 | 1.6 | 9.7 | 0.00 | 0.00 | 0.00 | 82 | 1011.2 |
| 20260509180428 | 14 | 271 | 1.6 | 9.7 | 0.00 | 0.00 | 0.00 | 82 | 1011.2 |
| 20260509180057 | 15 | 252 | 3.2 | 9.7 | 0.00 | 0.00 | 0.00 | 82 | 1011.2 |
| 20260509175956 | 15 | 246 | 3.2 | 9.7 | 0.00 | 0.00 | 0.00 | 81 | 1011.2 |
| 20260509175856 | 15 | 246 | 3.2 | 9.7 | 0.00 | 0.00 | 0.00 | 81 | 1011.2 |
| 20260509175812 | 15 | 264 | 3.2 | 8.0 | 0.00 | 0.00 | 0.00 | 81 | 1011.2 |
| 20260509175555 | 15 | 267 | 3.2 | 9.7 | 0.00 | 0.00 | 0.00 | 80 | 1011.2 |
| 20260509175456 | 15 | 269 | 3.2 | 9.7 | 0.00 | 0.00 | 0.00 | 80 | 1011.3 |
| 20260509175355 | 15 | 269 | 3.2 | 9.7 | 0.00 | 0.00 | 0.00 | 80 | 1011.2 |
| 20260509175257 | 15 | 242 | 3.2 | 9.7 | 0.00 | 0.00 | 0.00 | 80 | 1011.3 |
| 20260509175213 | 15 | 238 | 3.2 | 9.7 | 0.00 | 0.00 | 0.00 | 80 | 1011.3 |
| 20260509174957 | 15 | 246 | 1.6 | 9.7 | 0.00 | 0.00 | 0.00 | 80 | 1011.2 |
| 20260509174911 | 15 | 253 | 1.6 | 9.7 | 0.00 | 0.00 | 0.00 | 80 | 1011.2 |
| 20260509174656 | 15 | 284 | 1.6 | 9.7 | 0.00 | 0.00 | 0.00 | 80 | 1011.3 |
| 20260509174556 | 15 | 252 | 1.6 | 8.0 | 0.00 | 0.00 | 0.00 | 81 | 1011.2 |
| 20260509174458 | 15 | 233 | 0.0 | 4.8 | 0.00 | 0.00 | 0.00 | 81 | 1011.3 |
| 20260509174357 | 16 | 232 | 0.0 | 3.2 | 0.00 | 0.00 | 0.00 | 80 | 1011.2 |
| 20260509174312 | 16 | 232 | 1.6 | 3.2 | 0.00 | 0.00 | 0.00 | 81 | 1011.2 |
| 20260509174056 | 16 | 230 | 1.6 | 6.4 | 0.00 | 0.00 | 0.00 | 80 | 1011.2 |
| 20260509173957 | 16 | 231 | 1.6 | 6.4 | 0.00 | 0.00 | 0.00 | 80 | 1011.1 |
| 20260509173912 | 16 | 231 | 1.6 | 6.4 | 0.00 | 0.00 | 0.00 | 80 | 1011.1 |
| 20260509173658 | 16 | 231 | 1.6 | 6.4 | 0.00 | 0.00 | 0.00 | 79 | 1011.2 |
| 20260509173557 | 16 | 231 | 1.6 | 6.4 | 0.00 | 0.00 | 0.00 | 79 | 1011.2 |
| 20260509173455 | 16 | 231 | 3.2 | 6.4 | 0.00 | 0.00 | 0.00 | 79 | 1011.1 |
| 20260509173355 | 16 | 229 | 3.2 | 6.4 | 0.00 | 0.00 | 0.00 | 78 | 1011.1 |
| 20260509173310 | 16 | 229 | 3.2 | 11.3 | 0.00 | 0.00 | 0.00 | 78 | 1011.1 |
| 20260509173054 | 16 | 240 | 3.2 | 12.9 | 0.00 | 0.00 | 0.00 | 79 | 1011.0 |
| 20260509172954 | 16 | 237 | 3.2 | 12.9 | 0.00 | 0.00 | 0.00 | 79 | 1011.0 |
| 20260509172855 | 16 | 237 | 3.2 | 12.9 | 0.00 | 0.00 | 0.00 | 77 | 1010.9 |
| 20260509172754 | 16 | 237 | 3.2 | 12.9 | 0.00 | 0.00 | 0.00 | 78 | 1010.9 |
| 20260509172709 | 16 | 237 | 3.2 | 12.9 | 0.00 | 0.00 | 0.00 | 78 | 1010.9 |
| 20260509172456 | 16 | 257 | 4.8 | 17.7 | 0.00 | 0.00 | 0.00 | 77 | 1010.8 |
| 20260509172410 | 16 | 256 | 4.8 | 17.7 | 0.00 | 0.00 | 0.00 | 76 | 1010.9 |
| 20260509172154 | 16 | 246 | 4.8 | 17.7 | 0.00 | 0.00 | 0.00 | 76 | 1010.8 |
| 20260509172053 | 16 | 248 | 4.8 | 17.7 | 0.00 | 0.00 | 0.00 | 76 | 1010.8 |
| 20260509171954 | 16 | 270 | 4.8 | 17.7 | 0.00 | 0.00 | 0.00 | 76 | 1010.8 |
| 20260509171855 | 16 | 254 | 4.8 | 17.7 | 0.00 | 0.00 | 0.00 | 76 | 1010.8 |
| 20260509171755 | 17 | 266 | 4.8 | 17.7 | 0.00 | 0.00 | 0.00 | 74 | 1010.8 |
| 20260509171710 | 17 | 271 | 3.2 | 17.7 | 0.00 | 0.00 | 0.00 | 74 | 1010.7 |
| 20260509171453 | 17 | 250 | 3.2 | 16.1 | 0.00 | 0.00 | 0.00 | 74 | 1010.8 |
| 20260509171410 | 17 | 244 | 3.2 | 9.7 | 0.00 | 0.00 | 0.00 | 74 | 1010.8 |
| 20260509171154 | 17 | 236 | 1.6 | 9.7 | 0.00 | 0.00 | 0.00 | 76 | 1010.7 |
| 20260509171053 | 17 | 245 | 1.6 | 8.0 | 0.00 | 0.00 | 0.00 | 75 | 1010.7 |
| 20260509171010 | 17 | 245 | 1.6 | 8.0 | 0.00 | 0.00 | 0.00 | 74 | 1010.7 |
| 20260509170755 | 17 | 248 | 1.6 | 4.8 | 0.00 | 0.00 | 0.00 | 74 | 1010.7 |
| 20260509170654 | 16 | 248 | 1.6 | 4.8 | 0.00 | 0.00 | 0.00 | 75 | 1010.7 |
| 20260509170554 | 16 | 248 | 1.6 | 4.8 | 0.00 | 0.00 | 0.00 | 76 | 1010.7 |
| 20260509170510 | 16 | 248 | 1.6 | 11.3 | 0.00 | 0.00 | 0.00 | 77 | 1010.6 |
| 20260509170254 | 16 | 248 | 1.6 | 11.3 | 0.00 | 0.00 | 0.00 | 76 | 1010.7 |
| 20260509170154 | 16 | 252 | 1.6 | 11.3 | 0.00 | 0.00 | 0.00 | 77 | 1010.7 |
| 20260509170054 | 16 | 252 | 1.6 | 11.3 | 0.00 | 0.00 | 0.00 | 76 | 1010.7 |
| 20260509165955 | 16 | 252 | 1.6 | 11.3 | 0.00 | 0.00 | 0.00 | 75 | 1010.7 |
| 20260509165853 | 16 | 252 | 1.6 | 11.3 | 0.00 | 0.00 | 0.00 | 75 | 1010.7 |
| 20260509165754 | 16 | 252 | 1.6 | 11.3 | 0.00 | 0.00 | 0.00 | 75 | 1010.7 |
| 20260509165655 | 16 | 252 | 1.6 | 11.3 | 0.00 | 0.00 | 0.00 | 75 | 1010.8 |
| 20260509165611 | 16 | 252 | 1.6 | 11.3 | 0.00 | 0.00 | 0.00 | 75 | 1010.8 |
| 20260509165354 | 16 | 250 | 1.6 | 4.8 | 0.00 | 0.00 | 0.00 | 75 | 1010.8 |
| 20260509165255 | 16 | 250 | 1.6 | 4.8 | 0.00 | 0.00 | 0.00 | 75 | 1010.8 |
| 20260509165155 | 16 | 250 | 1.6 | 4.8 | 0.00 | 0.00 | 0.00 | 74 | 1010.8 |
| 20260509165110 | 16 | 250 | 1.6 | 4.8 | 0.00 | 0.00 | 0.00 | 74 | 1010.8 |
| 20260509164856 | 16 | 251 | 1.6 | 4.8 | 0.00 | 0.00 | 0.00 | 74 | 1010.8 |
| 20260509164754 | 16 | 252 | 1.6 | 3.2 | 0.00 | 0.00 | 0.00 | 74 | 1010.8 |
| 20260509164654 | 16 | 252 | 1.6 | 6.4 | 0.00 | 0.00 | 0.00 | 74 | 1010.8 |
| 20260509164553 | 16 | 252 | 1.6 | 6.4 | 0.00 | 0.00 | 0.00 | 74 | 1010.8 |
| 20260509164454 | 16 | 252 | 1.6 | 11.3 | 0.00 | 0.00 | 0.00 | 74 | 1010.8 |
| 20260509164353 | 16 | 252 | 1.6 | 11.3 | 0.00 | 0.00 | 0.00 | 74 | 1010.8 |
| 20260509164255 | 16 | 252 | 1.6 | 11.3 | 0.00 | 0.00 | 0.00 | 74 | 1010.8 |
| 20260509164153 | 16 | 252 | 1.6 | 11.3 | 0.00 | 0.00 | 0.00 | 74 | 1010.8 |
| 20260509164112 | 16 | 252 | 1.6 | 11.3 | 0.00 | 0.00 | 0.00 | 74 | 1010.8 |
| 20260509163853 | 16 | 252 | 1.6 | 11.3 | 0.00 | 0.00 | 0.00 | 74 | 1010.8 |
| 20260509163755 | 16 | 252 | 1.6 | 11.3 | 0.00 | 0.00 | 0.00 | 74 | 1010.8 |
| 20260509163654 | 16 | 254 | 1.6 | 11.3 | 0.00 | 0.00 | 0.00 | 74 | 1010.8 |
| 20260509163554 | 16 | 254 | 1.6 | 11.3 | 0.00 | 0.00 | 0.00 | 74 | 1010.8 |
| 20260509163510 | 16 | 252 | 1.6 | 11.3 | 0.00 | 0.00 | 0.00 | 74 | 1010.9 |
| 20260509163255 | 16 | 246 | 1.6 | 11.3 | 0.00 | 0.00 | 0.00 | 73 | 1010.9 |
| 20260509163225 | 16 | 246 | 1.6 | 11.3 | 0.00 | 0.00 | 0.00 | 73 | 1010.9 |
| 20260509162855 | 16 | 237 | 1.6 | 11.3 | 0.00 | 0.00 | 0.00 | 73 | 1010.9 |
| 20260509162753 | 16 | 240 | 1.6 | 11.3 | 0.00 | 0.00 | 0.00 | 73 | 1010.9 |
| 20260509162651 | 16 | 243 | 1.6 | 11.3 | 0.00 | 0.00 | 0.00 | 74 | 1011.0 |
| 20260509162551 | 16 | 243 | 1.6 | 11.3 | 0.00 | 0.00 | 0.00 | 73 | 1011.0 |
| 20260509162511 | 16 | 243 | 1.6 | 11.3 | 0.00 | 0.00 | 0.00 | 74 | 1011.0 |
| 20260509162252 | 16 | 242 | 1.6 | 11.3 | 0.00 | 0.00 | 0.00 | 74 | 1011.0 |
| 20260509162150 | 16 | 242 | 1.6 | 11.3 | 0.00 | 0.00 | 0.00 | 75 | 1011.1 |
| 20260509162103 | 16 | 242 | 1.6 | 11.3 | 0.00 | 0.00 | 0.00 | 74 | 1011.1 |
| 20260509161848 | 16 | 111 | 0.0 | 11.3 | 0.00 | 0.00 | 0.00 | 75 | 1011.1 |
| 20260509161747 | 16 | 111 | 0.0 | 11.3 | 0.00 | 0.00 | 0.00 | 75 | 1011.1 |
| 20260509161646 | 16 | 111 | 0.0 | 11.3 | 0.00 | 0.00 | 0.00 | 75 | 1011.1 |
| 20260509161544 | 16 | 111 | 0.0 | 11.3 | 0.00 | 0.00 | 0.00 | 75 | 1011.1 |
| 20260509161445 | 16 | 217 | 1.6 | 6.4 | 0.00 | 0.00 | 0.00 | 75 | 1011.1 |
| 20260509161344 | 16 | 217 | 1.6 | 6.4 | 0.00 | 0.00 | 0.00 | 75 | 1011.1 |
| 20260509161243 | 16 | 217 | 1.6 | 6.4 | 0.00 | 0.00 | 0.00 | 74 | 1011.2 |
| 20260509161141 | 16 | 217 | 1.6 | 6.4 | 0.00 | 0.00 | 0.00 | 75 | 1011.2 |
| 20260509161041 | 16 | 217 | 1.6 | 6.4 | 0.00 | 0.00 | 0.00 | 75 | 1011.2 |
| 20260509160939 | 16 | 217 | 1.6 | 6.4 | 0.00 | 0.00 | 0.00 | 75 | 1011.3 |
| 20260509160854 | 16 | 217 | 1.6 | 6.4 | 0.00 | 0.00 | 0.00 | 74 | 1011.3 |
| 20260509160639 | 16 | 217 | 1.6 | 6.4 | 0.00 | 0.00 | 0.00 | 74 | 1011.4 |
| 20260509160539 | 16 | 215 | 1.6 | 6.4 | 0.00 | 0.00 | 0.00 | 74 | 1011.4 |
| 20260509160437 | 16 | 213 | 1.6 | 11.3 | 0.00 | 0.00 | 0.00 | 74 | 1011.4 |
| 20260509160336 | 16 | 212 | 1.6 | 11.3 | 0.00 | 0.00 | 0.00 | 74 | 1011.4 |
| 20260509160238 | 16 | 269 | 1.6 | 11.3 | 0.00 | 0.00 | 0.00 | 75 | 1011.3 |
| 20260509160136 | 16 | 269 | 1.6 | 11.3 | 0.00 | 0.00 | 0.00 | 75 | 1011.3 |
| 20260509160036 | 16 | 269 | 1.6 | 11.3 | 0.00 | 0.00 | 0.00 | 75 | 1011.3 |
| 20260509155934 | 16 | 269 | 1.6 | 11.3 | 0.00 | 0.00 | 0.00 | 75 | 1011.2 |
| 20260509155834 | 16 | 269 | 1.6 | 11.3 | 0.00 | 0.00 | 0.00 | 75 | 1011.1 |
| 20260509155732 | 16 | 269 | 1.6 | 11.3 | 0.00 | 0.00 | 0.00 | 75 | 1011.1 |
| 20260509155632 | 16 | 267 | 1.6 | 11.3 | 0.00 | 0.00 | 0.00 | 74 | 1011.1 |
| 20260509155546 | 16 | 267 | 1.6 | 11.3 | 0.00 | 0.00 | 0.00 | 74 | 1011.2 |
| 20260509155330 | 16 | 112 | 1.6 | 8.0 | 0.00 | 0.00 | 0.00 | 76 | 1011.2 |
| 20260509155228 | 16 | 112 | 1.6 | 8.0 | 0.00 | 0.00 | 0.00 | 75 | 1011.2 |
| 20260509155129 | 16 | 112 | 1.6 | 11.3 | 0.00 | 0.00 | 0.00 | 76 | 1011.2 |
| 20260509155027 | 16 | 112 | 3.2 | 11.3 | 0.00 | 0.00 | 0.00 | 76 | 1011.3 |
| 20260509154927 | 16 | 112 | 3.2 | 11.3 | 0.00 | 0.00 | 0.00 | 76 | 1011.4 |
| 20260509154826 | 16 | 112 | 3.2 | 11.3 | 0.00 | 0.00 | 0.00 | 75 | 1011.4 |
| 20260509154724 | 16 | 112 | 3.2 | 11.3 | 0.00 | 0.00 | 0.00 | 75 | 1011.4 |
| 20260509154623 | 16 | 244 | 3.2 | 11.3 | 0.00 | 0.00 | 0.00 | 74 | 1011.4 |
| 20260509154523 | 16 | 244 | 3.2 | 11.3 | 0.00 | 0.00 | 0.00 | 74 | 1011.4 |
| 20260509154421 | 16 | 227 | 3.2 | 11.3 | 0.00 | 0.00 | 0.00 | 74 | 1011.5 |
| 20260509154321 | 16 | 240 | 3.2 | 11.3 | 0.00 | 0.00 | 0.00 | 74 | 1011.6 |
| 20260509154235 | 16 | 236 | 3.2 | 11.3 | 0.00 | 0.00 | 0.00 | 74 | 1011.6 |
| 20260509154019 | 16 | 247 | 3.2 | 11.3 | 0.00 | 0.00 | 0.00 | 75 | 1011.6 |
| 20260509153921 | 16 | 245 | 3.2 | 11.3 | 0.00 | 0.00 | 0.00 | 75 | 1011.6 |
| 20260509153818 | 16 | 241 | 3.2 | 11.3 | 0.00 | 0.00 | 0.00 | 75 | 1011.5 |